<?xml version="1.0" encoding="UTF-8" standalone="no" ?>
<gpx xmlns="http://www.topografix.com/GPX/1/1" xmlns:xsi="http://www.w3.org/2001/XMLSchema-instance" xsi:schemaLocation="http://www.topografix.com/GPX/1/1 http://www.topografix.com/GPX/1/1/gpx.xsd" version="1.1" creator="VisuGPX - https://www.visugpx.com">
  <metadata>
    <name>ZE013 dia 1 EWS 2018</name>
  </metadata>
  <trk>
    <name><![CDATA[Sans SP1]]></name>
    <extensions>
      <line xmlns="http://www.topografix.com/GPX/gpx_style/0/2">
        <color>00FF00</color>
        <width>4</width>
          <extensions>
            <sens>1</sens>
          </extensions>
      </line>
    </extensions>
    <trkseg>
      <trkpt lat="42.50382" lon="0.15538">
        <ele>723</ele>
        <time>2004-03-14T15:33:15.000Z</time>
      </trkpt>
      <trkpt lat="42.50464" lon="0.15594">
        <ele>725</ele>
        <time>2004-03-14T15:33:15.000Z</time>
      </trkpt>
      <trkpt lat="42.50557" lon="0.15843">
        <ele>735</ele>
        <time>2004-03-14T15:33:15.000Z</time>
      </trkpt>
      <trkpt lat="42.50649" lon="0.16533">
        <ele>785</ele>
        <time>2004-03-14T15:33:15.000Z</time>
      </trkpt>
      <trkpt lat="42.50776" lon="0.16901">
        <ele>815</ele>
        <time>2004-03-14T15:33:15.000Z</time>
      </trkpt>
      <trkpt lat="42.50752" lon="0.17043">
        <ele>825</ele>
        <time>2004-03-14T15:33:15.000Z</time>
      </trkpt>
      <trkpt lat="42.50565" lon="0.17162">
        <ele>845</ele>
        <time>2004-03-14T15:33:15.000Z</time>
      </trkpt>
      <trkpt lat="42.50543" lon="0.17272">
        <ele>860</ele>
        <time>2004-03-14T15:33:15.000Z</time>
      </trkpt>
      <trkpt lat="42.5065" lon="0.17466">
        <ele>874</ele>
        <time>2004-03-14T15:33:15.000Z</time>
      </trkpt>
      <trkpt lat="42.50596" lon="0.17695">
        <ele>893</ele>
        <time>2004-03-14T15:33:15.000Z</time>
      </trkpt>
      <trkpt lat="42.50602" lon="0.17719">
        <ele>894</ele>
        <time>2004-03-14T15:33:15.000Z</time>
      </trkpt>
      <trkpt lat="42.50589" lon="0.17794">
        <ele>898</ele>
        <time>2004-03-14T15:33:15.000Z</time>
      </trkpt>
      <trkpt lat="42.5056" lon="0.17805">
        <ele>905</ele>
        <time>2004-03-14T15:33:15.000Z</time>
      </trkpt>
      <trkpt lat="42.50532" lon="0.17728">
        <ele>911</ele>
        <time>2004-03-14T15:33:15.000Z</time>
      </trkpt>
      <trkpt lat="42.5036" lon="0.17637">
        <ele>934</ele>
        <time>2004-03-14T15:33:15.000Z</time>
      </trkpt>
      <trkpt lat="42.50357" lon="0.17708">
        <ele>940</ele>
        <time>2004-03-14T15:33:15.000Z</time>
      </trkpt>
      <trkpt lat="42.50327" lon="0.17709">
        <ele>945</ele>
        <time>2004-03-14T15:33:15.000Z</time>
      </trkpt>
      <trkpt lat="42.50303" lon="0.17708">
        <ele>947</ele>
        <time>2004-03-14T15:33:15.000Z</time>
      </trkpt>
      <trkpt lat="42.50261" lon="0.17734">
        <ele>952</ele>
        <time>2004-03-14T15:33:15.000Z</time>
      </trkpt>
      <trkpt lat="42.50232" lon="0.17738">
        <ele>954</ele>
        <time>2004-03-14T15:33:15.000Z</time>
      </trkpt>
      <trkpt lat="42.50273" lon="0.17886">
        <ele>970</ele>
        <time>2004-03-14T15:33:15.000Z</time>
      </trkpt>
      <trkpt lat="42.50242" lon="0.17891">
        <ele>972</ele>
        <time>2004-03-14T15:33:15.000Z</time>
      </trkpt>
      <trkpt lat="42.50109" lon="0.17859">
        <ele>991</ele>
        <time>2004-03-14T15:33:15.000Z</time>
      </trkpt>
      <trkpt lat="42.50148" lon="0.18005">
        <ele>1004</ele>
        <time>2004-03-14T15:33:15.000Z</time>
      </trkpt>
      <trkpt lat="42.50029" lon="0.17963">
        <ele>1025</ele>
        <time>2004-03-14T15:33:15.000Z</time>
      </trkpt>
      <trkpt lat="42.50044" lon="0.18067">
        <ele>1040.3</ele>
        <time>2004-03-14T15:33:15.000Z</time>
      </trkpt>
      <trkpt lat="42.50085" lon="0.18159">
        <ele>1055.6</ele>
        <time>2004-03-14T15:33:15.000Z</time>
      </trkpt>
      <trkpt lat="42.50091" lon="0.18212">
        <ele>1064</ele>
        <time>2004-03-14T15:33:15.000Z</time>
      </trkpt>
      <trkpt lat="42.50098" lon="0.18235">
        <ele>1067</ele>
        <time>2004-03-14T15:33:15.000Z</time>
      </trkpt>
      <trkpt lat="42.50173" lon="0.18251">
        <ele>1060</ele>
        <time>2004-03-14T15:33:15.000Z</time>
      </trkpt>
      <trkpt lat="42.50162" lon="0.18298">
        <ele>1060</ele>
        <time>2004-03-14T15:33:15.000Z</time>
      </trkpt>
      <trkpt lat="42.50046" lon="0.18317">
        <ele>1080.4</ele>
        <time>2004-03-14T15:33:15.000Z</time>
      </trkpt>
      <trkpt lat="42.50022" lon="0.18285">
        <ele>1072.8</ele>
        <time>2004-03-14T15:33:15.000Z</time>
      </trkpt>
      <trkpt lat="42.4993" lon="0.18204">
        <ele>1082.1</ele>
        <time>2004-03-14T15:33:15.000Z</time>
      </trkpt>
      <trkpt lat="42.49838" lon="0.182">
        <ele>1098.8</ele>
        <time>2004-03-14T15:33:15.000Z</time>
      </trkpt>
      <trkpt lat="42.49757" lon="0.18154">
        <ele>1108</ele>
        <time>2004-03-14T15:33:15.000Z</time>
      </trkpt>
      <trkpt lat="42.49719" lon="0.18109">
        <ele>1114</ele>
        <time>2004-03-14T15:33:15.000Z</time>
      </trkpt>
      <trkpt lat="42.49747" lon="0.18228">
        <ele>1125.3</ele>
        <time>2004-03-14T15:33:15.000Z</time>
      </trkpt>
      <trkpt lat="42.49832" lon="0.18397">
        <ele>1143.1</ele>
        <time>2004-03-14T15:33:15.000Z</time>
      </trkpt>
      <trkpt lat="42.49696" lon="0.18328">
        <ele>1167.1</ele>
        <time>2004-03-14T15:33:15.000Z</time>
      </trkpt>
      <trkpt lat="42.49776" lon="0.18497">
        <ele>1186</ele>
        <time>2004-03-14T15:33:15.000Z</time>
      </trkpt>
      <trkpt lat="42.49634" lon="0.18393">
        <ele>1203.4</ele>
        <time>2004-03-14T15:33:15.000Z</time>
      </trkpt>
      <trkpt lat="42.49604" lon="0.18308">
        <ele>1214.2</ele>
        <time>2004-03-14T15:33:15.000Z</time>
      </trkpt>
      <trkpt lat="42.49571" lon="0.18289">
        <ele>1217</ele>
        <time>2004-03-14T15:33:15.000Z</time>
      </trkpt>
      <trkpt lat="42.49544" lon="0.18253">
        <ele>1216.6</ele>
        <time>2004-03-14T15:33:15.000Z</time>
      </trkpt>
      <trkpt lat="42.49486" lon="0.18239">
        <ele>1218</ele>
        <time>2004-03-14T15:33:15.000Z</time>
      </trkpt>
      <trkpt lat="42.49486" lon="0.18144">
        <ele>1220</ele>
        <time>2004-03-14T15:33:15.000Z</time>
      </trkpt>
      <trkpt lat="42.49461" lon="0.18076">
        <ele>1223</ele>
        <time>2004-03-14T15:33:15.000Z</time>
      </trkpt>
      <trkpt lat="42.4946" lon="0.18025">
        <ele>1222.8</ele>
        <time>2004-03-14T15:33:15.000Z</time>
      </trkpt>
      <trkpt lat="42.495" lon="0.17969">
        <ele>1228.4</ele>
        <time>2004-03-14T15:33:15.000Z</time>
      </trkpt>
      <trkpt lat="42.49523" lon="0.17926">
        <ele>1231</ele>
        <time>2004-03-14T15:33:15.000Z</time>
      </trkpt>
      <trkpt lat="42.49504" lon="0.17872">
        <ele>1243.8</ele>
        <time>2004-03-14T15:33:15.000Z</time>
      </trkpt>
      <trkpt lat="42.49517" lon="0.17848">
        <ele>1238.9</ele>
        <time>2004-03-14T15:33:15.000Z</time>
      </trkpt>
      <trkpt lat="42.49545" lon="0.17839">
        <ele>1237.3</ele>
        <time>2004-03-14T15:33:15.000Z</time>
      </trkpt>
      <trkpt lat="42.49547" lon="0.17809">
        <ele>1245.8</ele>
        <time>2004-03-14T15:33:15.000Z</time>
      </trkpt>
      <trkpt lat="42.4952" lon="0.17799">
        <ele>1250.1</ele>
        <time>2004-03-14T15:33:15.000Z</time>
      </trkpt>
      <trkpt lat="42.4954" lon="0.1774">
        <ele>1252.2</ele>
        <time>2004-03-14T15:33:15.000Z</time>
      </trkpt>
      <trkpt lat="42.49564" lon="0.17678">
        <ele>1257.3</ele>
        <time>2004-03-14T15:33:15.000Z</time>
      </trkpt>
      <trkpt lat="42.49586" lon="0.1764">
        <ele>1257</ele>
        <time>2004-03-14T15:33:15.000Z</time>
      </trkpt>
      <trkpt lat="42.49599" lon="0.17604">
        <ele>1257.8</ele>
        <time>2004-03-14T15:33:15.000Z</time>
      </trkpt>
      <trkpt lat="42.49565" lon="0.17563">
        <ele>1265.2</ele>
        <time>2004-03-14T15:33:15.000Z</time>
      </trkpt>
      <trkpt lat="42.49511" lon="0.17511">
        <ele>1269</ele>
        <time>2004-03-14T15:33:15.000Z</time>
      </trkpt>
      <trkpt lat="42.49469" lon="0.17494">
        <ele>1273</ele>
        <time>2004-03-14T15:33:15.000Z</time>
      </trkpt>
      <trkpt lat="42.49441" lon="0.17492">
        <ele>1271.2</ele>
        <time>2004-03-14T15:33:15.000Z</time>
      </trkpt>
      <trkpt lat="42.49425" lon="0.17515">
        <ele>1270.3</ele>
        <time>2004-03-14T15:33:15.000Z</time>
      </trkpt>
      <trkpt lat="42.49409" lon="0.1754">
        <ele>1271.4</ele>
        <time>2004-03-14T15:33:15.000Z</time>
      </trkpt>
      <trkpt lat="42.49369" lon="0.17539">
        <ele>1273.4</ele>
        <time>2004-03-14T15:33:15.000Z</time>
      </trkpt>
      <trkpt lat="42.49289" lon="0.17488">
        <ele>1270</ele>
        <time>2004-03-14T15:33:15.000Z</time>
      </trkpt>
      <trkpt lat="42.49266" lon="0.17476">
        <ele>1269.5</ele>
        <time>2004-03-14T15:33:15.000Z</time>
      </trkpt>
      <trkpt lat="42.4925" lon="0.17493">
        <ele>1257.2</ele>
        <time>2004-03-14T15:33:15.000Z</time>
      </trkpt>
      <trkpt lat="42.4926" lon="0.17508">
        <ele>1261.6</ele>
        <time>2004-03-14T15:33:15.000Z</time>
      </trkpt>
      <trkpt lat="42.49276" lon="0.17526">
        <ele>1266.8</ele>
        <time>2004-03-14T15:33:15.000Z</time>
      </trkpt>
      <trkpt lat="42.49282" lon="0.17548">
        <ele>1269.7</ele>
        <time>2004-03-14T15:33:15.000Z</time>
      </trkpt>
      <trkpt lat="42.4926" lon="0.17582">
        <ele>1260.8</ele>
        <time>2004-03-14T15:33:15.000Z</time>
      </trkpt>
      <trkpt lat="42.49232" lon="0.1763">
        <ele>1258.2</ele>
        <time>2004-03-14T15:33:15.000Z</time>
      </trkpt>
      <trkpt lat="42.49199" lon="0.17669">
        <ele>1252.1</ele>
        <time>2004-03-14T15:33:15.000Z</time>
      </trkpt>
      <trkpt lat="42.49177" lon="0.1771">
        <ele>1251.1</ele>
        <time>2004-03-14T15:33:15.000Z</time>
      </trkpt>
      <trkpt lat="42.49159" lon="0.17727">
        <ele>1249.5</ele>
        <time>2004-03-14T15:33:15.000Z</time>
      </trkpt>
      <trkpt lat="42.4908" lon="0.17752">
        <ele>1241</ele>
        <time>2004-03-14T15:33:15.000Z</time>
      </trkpt>
      <trkpt lat="42.49012" lon="0.17769">
        <ele>1236.9</ele>
        <time>2004-03-14T15:33:15.000Z</time>
      </trkpt>
      <trkpt lat="42.48988" lon="0.17767">
        <ele>1232.1</ele>
        <time>2004-03-14T15:33:15.000Z</time>
      </trkpt>
      <trkpt lat="42.48915" lon="0.17771">
        <ele>1223.7</ele>
        <time>2004-03-14T15:33:15.000Z</time>
      </trkpt>
      <trkpt lat="42.48863" lon="0.17789">
        <ele>1215.9</ele>
        <time>2004-03-14T15:33:15.000Z</time>
      </trkpt>
      <trkpt lat="42.48817" lon="0.17824">
        <ele>1213.7</ele>
        <time>2004-03-14T15:33:15.000Z</time>
      </trkpt>
      <trkpt lat="42.48791" lon="0.17837">
        <ele>1210.3</ele>
        <time>2004-03-14T15:33:15.000Z</time>
      </trkpt>
      <trkpt lat="42.48675" lon="0.17881">
        <ele>1199</ele>
        <time>2004-03-14T15:33:15.000Z</time>
      </trkpt>
      <trkpt lat="42.48616" lon="0.17885">
        <ele>1189.2</ele>
        <time>2004-03-14T15:33:15.000Z</time>
      </trkpt>
      <trkpt lat="42.48569" lon="0.17901">
        <ele>1185.1</ele>
        <time>2004-03-14T15:33:15.000Z</time>
      </trkpt>
      <trkpt lat="42.48542" lon="0.17916">
        <ele>1184.1</ele>
        <time>2004-03-14T15:33:15.000Z</time>
      </trkpt>
      <trkpt lat="42.48491" lon="0.1791">
        <ele>1175</ele>
        <time>2004-03-14T15:33:15.000Z</time>
      </trkpt>
      <trkpt lat="42.48468" lon="0.17916">
        <ele>1170.2</ele>
        <time>2004-03-14T15:33:15.000Z</time>
      </trkpt>
      <trkpt lat="42.4844" lon="0.17958">
        <ele>1172</ele>
        <time>2004-03-14T15:33:15.000Z</time>
      </trkpt>
      <trkpt lat="42.48417" lon="0.18">
        <ele>1179.6</ele>
        <time>2004-03-14T15:33:15.000Z</time>
      </trkpt>
      <trkpt lat="42.48406" lon="0.18029">
        <ele>1185</ele>
        <time>2004-03-14T15:33:15.000Z</time>
      </trkpt>
      <trkpt lat="42.48398" lon="0.1805">
        <ele>1190</ele>
        <time>2004-03-14T15:33:15.000Z</time>
      </trkpt>
      <trkpt lat="42.48379" lon="0.18076">
        <ele>1201.2</ele>
        <time>2004-03-14T15:33:15.000Z</time>
      </trkpt>
      <trkpt lat="42.48377" lon="0.18072">
        <ele>1216.7</ele>
        <time>2006-05-26T14:41:26.000Z</time>
      </trkpt>
      <trkpt lat="42.48364" lon="0.18072">
        <ele>1217.2</ele>
        <time>2006-05-26T14:41:28.000Z</time>
      </trkpt>
      <trkpt lat="42.48353" lon="0.18072">
        <ele>1218.1</ele>
        <time>2006-05-26T14:41:30.000Z</time>
      </trkpt>
      <trkpt lat="42.48342" lon="0.18074">
        <ele>1218.1</ele>
        <time>2006-05-26T14:41:32.000Z</time>
      </trkpt>
      <trkpt lat="42.48334" lon="0.18074">
        <ele>1218.6</ele>
        <time>2006-05-26T14:41:34.000Z</time>
      </trkpt>
      <trkpt lat="42.48325" lon="0.18076">
        <ele>1217.6</ele>
        <time>2006-05-26T14:41:36.000Z</time>
      </trkpt>
      <trkpt lat="42.48314" lon="0.18078">
        <ele>1218.1</ele>
        <time>2006-05-26T14:41:38.000Z</time>
      </trkpt>
      <trkpt lat="42.48304" lon="0.1808">
        <ele>1219.1</ele>
        <time>2006-05-26T14:41:40.000Z</time>
      </trkpt>
      <trkpt lat="42.48295" lon="0.18082">
        <ele>1220.5</ele>
        <time>2006-05-26T14:41:42.000Z</time>
      </trkpt>
      <trkpt lat="42.48282" lon="0.18087">
        <ele>1220.1</ele>
        <time>2006-05-26T14:41:45.000Z</time>
      </trkpt>
      <trkpt lat="42.48272" lon="0.18093">
        <ele>1219.6</ele>
        <time>2006-05-26T14:41:48.000Z</time>
      </trkpt>
      <trkpt lat="42.48261" lon="0.18097">
        <ele>1220.1</ele>
        <time>2006-05-26T14:41:51.000Z</time>
      </trkpt>
      <trkpt lat="42.48256" lon="0.18104">
        <ele>1220.5</ele>
        <time>2006-05-26T14:42:00.000Z</time>
      </trkpt>
      <trkpt lat="42.48254" lon="0.18121">
        <ele>1218.6</ele>
        <time>2006-05-26T14:42:08.000Z</time>
      </trkpt>
      <trkpt lat="42.48252" lon="0.18136">
        <ele>1216.7</ele>
        <time>2006-05-26T14:42:12.000Z</time>
      </trkpt>
      <trkpt lat="42.4825" lon="0.18149">
        <ele>1216.2</ele>
        <time>2006-05-26T14:42:15.000Z</time>
      </trkpt>
      <trkpt lat="42.4825" lon="0.18164">
        <ele>1218.1</ele>
        <time>2006-05-26T14:42:19.000Z</time>
      </trkpt>
      <trkpt lat="42.48252" lon="0.18179">
        <ele>1220.5</ele>
        <time>2006-05-26T14:42:24.000Z</time>
      </trkpt>
      <trkpt lat="42.48254" lon="0.18194">
        <ele>1222</ele>
        <time>2006-05-26T14:42:29.000Z</time>
      </trkpt>
      <trkpt lat="42.48256" lon="0.18207">
        <ele>1223.4</ele>
        <time>2006-05-26T14:42:34.000Z</time>
      </trkpt>
      <trkpt lat="42.48252" lon="0.18222">
        <ele>1222.9</ele>
        <time>2006-05-26T14:42:39.000Z</time>
      </trkpt>
      <trkpt lat="42.48248" lon="0.18233">
        <ele>1222.9</ele>
        <time>2006-05-26T14:42:42.000Z</time>
      </trkpt>
      <trkpt lat="42.48244" lon="0.18248">
        <ele>1223.4</ele>
        <time>2006-05-26T14:42:46.000Z</time>
      </trkpt>
      <trkpt lat="42.48241" lon="0.18263">
        <ele>1223.4</ele>
        <time>2006-05-26T14:42:50.000Z</time>
      </trkpt>
      <trkpt lat="42.48244" lon="0.18273">
        <ele>1223.4</ele>
        <time>2006-05-26T14:43:42.000Z</time>
      </trkpt>
      <trkpt lat="42.48237" lon="0.18288">
        <ele>1222</ele>
        <time>2006-05-26T14:43:46.000Z</time>
      </trkpt>
      <trkpt lat="42.48231" lon="0.18301">
        <ele>1220.5</ele>
        <time>2006-05-26T14:43:49.000Z</time>
      </trkpt>
      <trkpt lat="42.48227" lon="0.18314">
        <ele>1222</ele>
        <time>2006-05-26T14:43:53.000Z</time>
      </trkpt>
      <trkpt lat="42.4822" lon="0.18327">
        <ele>1222.5</ele>
        <time>2006-05-26T14:43:57.000Z</time>
      </trkpt>
      <trkpt lat="42.48214" lon="0.18338">
        <ele>1221</ele>
        <time>2006-05-26T14:44:00.000Z</time>
      </trkpt>
      <trkpt lat="42.48209" lon="0.18353">
        <ele>1221.5</ele>
        <time>2006-05-26T14:44:03.000Z</time>
      </trkpt>
      <trkpt lat="42.48209" lon="0.18368">
        <ele>1221.5</ele>
        <time>2006-05-26T14:44:06.000Z</time>
      </trkpt>
      <trkpt lat="42.48207" lon="0.18383">
        <ele>1219.6</ele>
        <time>2006-05-26T14:44:09.000Z</time>
      </trkpt>
      <trkpt lat="42.48196" lon="0.18387">
        <ele>1216.7</ele>
        <time>2006-05-26T14:44:13.000Z</time>
      </trkpt>
      <trkpt lat="42.48186" lon="0.18385">
        <ele>1217.2</ele>
        <time>2006-05-26T14:44:36.000Z</time>
      </trkpt>
      <trkpt lat="42.48177" lon="0.18389">
        <ele>1219.1</ele>
        <time>2006-05-26T14:44:41.000Z</time>
      </trkpt>
      <trkpt lat="42.48169" lon="0.18396">
        <ele>1220.5</ele>
        <time>2006-05-26T14:44:46.000Z</time>
      </trkpt>
      <trkpt lat="42.4816" lon="0.18404">
        <ele>1221.5</ele>
        <time>2006-05-26T14:44:52.000Z</time>
      </trkpt>
      <trkpt lat="42.48153" lon="0.18413">
        <ele>1223.4</ele>
        <time>2006-05-26T14:44:58.000Z</time>
      </trkpt>
      <trkpt lat="42.48147" lon="0.18421">
        <ele>1225.3</ele>
        <time>2006-05-26T14:45:05.000Z</time>
      </trkpt>
      <trkpt lat="42.48138" lon="0.1843">
        <ele>1225.3</ele>
        <time>2006-05-26T14:45:12.000Z</time>
      </trkpt>
      <trkpt lat="42.4813" lon="0.18439">
        <ele>1226.3</ele>
        <time>2006-05-26T14:45:19.000Z</time>
      </trkpt>
      <trkpt lat="42.48124" lon="0.18445">
        <ele>1227.7</ele>
        <time>2006-05-26T14:45:27.000Z</time>
      </trkpt>
      <trkpt lat="42.48115" lon="0.18458">
        <ele>1228.2</ele>
        <time>2006-05-26T14:46:59.000Z</time>
      </trkpt>
      <trkpt lat="42.48111" lon="0.18471">
        <ele>1228.2</ele>
        <time>2006-05-26T14:47:06.000Z</time>
      </trkpt>
      <trkpt lat="42.48104" lon="0.18484">
        <ele>1229.7</ele>
        <time>2006-05-26T14:47:11.000Z</time>
      </trkpt>
      <trkpt lat="42.48098" lon="0.18494">
        <ele>1228.7</ele>
        <time>2006-05-26T14:47:15.000Z</time>
      </trkpt>
      <trkpt lat="42.48091" lon="0.18505">
        <ele>1229.2</ele>
        <time>2006-05-26T14:47:19.000Z</time>
      </trkpt>
      <trkpt lat="42.48085" lon="0.18516">
        <ele>1231.1</ele>
        <time>2006-05-26T14:47:24.000Z</time>
      </trkpt>
      <trkpt lat="42.4808" lon="0.18529">
        <ele>1231.6</ele>
        <time>2006-05-26T14:47:29.000Z</time>
      </trkpt>
      <trkpt lat="42.48076" lon="0.18542">
        <ele>1232.5</ele>
        <time>2006-05-26T14:47:34.000Z</time>
      </trkpt>
      <trkpt lat="42.4807" lon="0.18555">
        <ele>1233.5</ele>
        <time>2006-05-26T14:47:40.000Z</time>
      </trkpt>
      <trkpt lat="42.48063" lon="0.18565">
        <ele>1234.5</ele>
        <time>2006-05-26T14:47:46.000Z</time>
      </trkpt>
      <trkpt lat="42.48057" lon="0.18574">
        <ele>1233</ele>
        <time>2006-05-26T14:47:52.000Z</time>
      </trkpt>
      <trkpt lat="42.48048" lon="0.18585">
        <ele>1233.5</ele>
        <time>2006-05-26T14:47:58.000Z</time>
      </trkpt>
      <trkpt lat="42.48042" lon="0.18595">
        <ele>1230.6</ele>
        <time>2006-05-26T14:48:04.000Z</time>
      </trkpt>
      <trkpt lat="42.48035" lon="0.18608">
        <ele>1231.1</ele>
        <time>2006-05-26T14:48:08.000Z</time>
      </trkpt>
      <trkpt lat="42.48025" lon="0.18625">
        <ele>1230.1</ele>
        <time>2006-05-26T14:48:22.000Z</time>
      </trkpt>
      <trkpt lat="42.48021" lon="0.18638">
        <ele>1229.7</ele>
        <time>2006-05-26T14:48:25.000Z</time>
      </trkpt>
      <trkpt lat="42.48018" lon="0.18653">
        <ele>1230.6</ele>
        <time>2006-05-26T14:48:29.000Z</time>
      </trkpt>
      <trkpt lat="42.48014" lon="0.18666">
        <ele>1232.1</ele>
        <time>2006-05-26T14:48:33.000Z</time>
      </trkpt>
      <trkpt lat="42.4801" lon="0.18679">
        <ele>1233.5</ele>
        <time>2006-05-26T14:48:37.000Z</time>
      </trkpt>
      <trkpt lat="42.48005" lon="0.18692">
        <ele>1234.5</ele>
        <time>2006-05-26T14:48:41.000Z</time>
      </trkpt>
      <trkpt lat="42.47999" lon="0.18705">
        <ele>1235</ele>
        <time>2006-05-26T14:48:46.000Z</time>
      </trkpt>
      <trkpt lat="42.47992" lon="0.18718">
        <ele>1236.4</ele>
        <time>2006-05-26T14:48:51.000Z</time>
      </trkpt>
      <trkpt lat="42.47986" lon="0.1873">
        <ele>1237.8</ele>
        <time>2006-05-26T14:48:56.000Z</time>
      </trkpt>
      <trkpt lat="42.47984" lon="0.18745">
        <ele>1239.8</ele>
        <time>2006-05-26T14:49:10.000Z</time>
      </trkpt>
      <trkpt lat="42.47982" lon="0.18758">
        <ele>1240.2</ele>
        <time>2006-05-26T14:49:23.000Z</time>
      </trkpt>
      <trkpt lat="42.47977" lon="0.18771">
        <ele>1239.8</ele>
        <time>2006-05-26T14:49:28.000Z</time>
      </trkpt>
      <trkpt lat="42.47973" lon="0.18782">
        <ele>1239.8</ele>
        <time>2006-05-26T14:49:33.000Z</time>
      </trkpt>
      <trkpt lat="42.47965" lon="0.1878">
        <ele>1240.7</ele>
        <time>2006-05-26T14:49:38.000Z</time>
      </trkpt>
      <trkpt lat="42.47956" lon="0.18776">
        <ele>1240.2</ele>
        <time>2006-05-26T14:49:43.000Z</time>
      </trkpt>
      <trkpt lat="42.4795" lon="0.18784">
        <ele>1241.7</ele>
        <time>2006-05-26T14:49:49.000Z</time>
      </trkpt>
      <trkpt lat="42.47941" lon="0.18782">
        <ele>1239.8</ele>
        <time>2006-05-26T14:50:54.000Z</time>
      </trkpt>
      <trkpt lat="42.47935" lon="0.18776">
        <ele>1240.7</ele>
        <time>2006-05-26T14:50:58.000Z</time>
      </trkpt>
      <trkpt lat="42.47924" lon="0.18769">
        <ele>1241.7</ele>
        <time>2006-05-26T14:51:03.000Z</time>
      </trkpt>
      <trkpt lat="42.47918" lon="0.18758">
        <ele>1243.1</ele>
        <time>2006-05-26T14:51:08.000Z</time>
      </trkpt>
      <trkpt lat="42.47915" lon="0.18745">
        <ele>1240.7</ele>
        <time>2006-05-26T14:51:11.000Z</time>
      </trkpt>
      <trkpt lat="42.47909" lon="0.18741">
        <ele>1239.3</ele>
        <time>2006-05-26T14:51:14.000Z</time>
      </trkpt>
      <trkpt lat="42.479" lon="0.18748">
        <ele>1237.8</ele>
        <time>2006-05-26T14:51:18.000Z</time>
      </trkpt>
      <trkpt lat="42.47892" lon="0.18741">
        <ele>1235</ele>
        <time>2006-05-26T14:51:21.000Z</time>
      </trkpt>
      <trkpt lat="42.47883" lon="0.18733">
        <ele>1232.5</ele>
        <time>2006-05-26T14:51:24.000Z</time>
      </trkpt>
      <trkpt lat="42.47872" lon="0.18733">
        <ele>1230.6</ele>
        <time>2006-05-26T14:51:27.000Z</time>
      </trkpt>
      <trkpt lat="42.4786" lon="0.18728">
        <ele>1229.2</ele>
        <time>2006-05-26T14:51:30.000Z</time>
      </trkpt>
      <trkpt lat="42.47849" lon="0.18733">
        <ele>1228.2</ele>
        <time>2006-05-26T14:51:32.000Z</time>
      </trkpt>
      <trkpt lat="42.47844" lon="0.18745">
        <ele>1229.2</ele>
        <time>2006-05-26T14:51:35.000Z</time>
      </trkpt>
      <trkpt lat="42.47838" lon="0.18756">
        <ele>1229.7</ele>
        <time>2006-05-26T14:51:39.000Z</time>
      </trkpt>
      <trkpt lat="42.4783" lon="0.18761">
        <ele>1230.1</ele>
        <time>2006-05-26T14:51:43.000Z</time>
      </trkpt>
      <trkpt lat="42.47821" lon="0.18769">
        <ele>1231.1</ele>
        <time>2006-05-26T14:51:47.000Z</time>
      </trkpt>
      <trkpt lat="42.47812" lon="0.1878">
        <ele>1231.1</ele>
        <time>2006-05-26T14:51:51.000Z</time>
      </trkpt>
      <trkpt lat="42.47804" lon="0.18786">
        <ele>1231.1</ele>
        <time>2006-05-26T14:51:56.000Z</time>
      </trkpt>
      <trkpt lat="42.47797" lon="0.18776">
        <ele>1230.1</ele>
        <time>2006-05-26T14:52:00.000Z</time>
      </trkpt>
      <trkpt lat="42.47789" lon="0.18767">
        <ele>1229.7</ele>
        <time>2006-05-26T14:52:03.000Z</time>
      </trkpt>
      <trkpt lat="42.4778" lon="0.18754">
        <ele>1227.7</ele>
        <time>2006-05-26T14:52:06.000Z</time>
      </trkpt>
      <trkpt lat="42.47772" lon="0.1875">
        <ele>1226.3</ele>
        <time>2006-05-26T14:52:08.000Z</time>
      </trkpt>
      <trkpt lat="42.47761" lon="0.18743">
        <ele>1225.3</ele>
        <time>2006-05-26T14:52:12.000Z</time>
      </trkpt>
      <trkpt lat="42.47754" lon="0.18735">
        <ele>1224.9</ele>
        <time>2006-05-26T14:52:16.000Z</time>
      </trkpt>
      <trkpt lat="42.47746" lon="0.18726">
        <ele>1225.3</ele>
        <time>2006-05-26T14:52:19.000Z</time>
      </trkpt>
      <trkpt lat="42.47737" lon="0.18728">
        <ele>1226.8</ele>
        <time>2006-05-26T14:54:46.000Z</time>
      </trkpt>
      <trkpt lat="42.47729" lon="0.18724">
        <ele>1227.3</ele>
        <time>2006-05-26T14:55:38.000Z</time>
      </trkpt>
      <trkpt lat="42.47718" lon="0.1872">
        <ele>1228.7</ele>
        <time>2006-05-26T14:55:45.000Z</time>
      </trkpt>
      <trkpt lat="42.47707" lon="0.1872">
        <ele>1229.7</ele>
        <time>2006-05-26T14:55:52.000Z</time>
      </trkpt>
      <trkpt lat="42.47699" lon="0.18715">
        <ele>1230.1</ele>
        <time>2006-05-26T14:55:59.000Z</time>
      </trkpt>
      <trkpt lat="42.4769" lon="0.18711">
        <ele>1231.1</ele>
        <time>2006-05-26T14:56:05.000Z</time>
      </trkpt>
      <trkpt lat="42.47681" lon="0.187">
        <ele>1231.6</ele>
        <time>2006-05-26T14:56:12.000Z</time>
      </trkpt>
      <trkpt lat="42.47675" lon="0.1869">
        <ele>1230.6</ele>
        <time>2006-05-26T14:56:16.000Z</time>
      </trkpt>
      <trkpt lat="42.47675" lon="0.1869">
        <ele>1230.6</ele>
        <time>2006-05-26T14:56:16.000Z</time>
      </trkpt>
      <trkpt lat="42.47669" lon="0.18679">
        <ele>1230.1</ele>
        <time>2006-05-26T14:56:20.000Z</time>
      </trkpt>
      <trkpt lat="42.47662" lon="0.18677">
        <ele>1228.2</ele>
        <time>2006-05-26T14:56:58.000Z</time>
      </trkpt>
      <trkpt lat="42.47654" lon="0.18681">
        <ele>1226.8</ele>
        <time>2006-05-26T14:57:02.000Z</time>
      </trkpt>
      <trkpt lat="42.47641" lon="0.18683">
        <ele>1223.4</ele>
        <time>2006-05-26T14:57:06.000Z</time>
      </trkpt>
      <trkpt lat="42.47628" lon="0.18685">
        <ele>1220.1</ele>
        <time>2006-05-26T14:57:09.000Z</time>
      </trkpt>
      <trkpt lat="42.47619" lon="0.1869">
        <ele>1218.6</ele>
        <time>2006-05-26T14:57:11.000Z</time>
      </trkpt>
      <trkpt lat="42.47611" lon="0.18694">
        <ele>1217.2</ele>
        <time>2006-05-26T14:57:13.000Z</time>
      </trkpt>
      <trkpt lat="42.47602" lon="0.187">
        <ele>1215.7</ele>
        <time>2006-05-26T14:57:15.000Z</time>
      </trkpt>
      <trkpt lat="42.47593" lon="0.18707">
        <ele>1214.8</ele>
        <time>2006-05-26T14:57:17.000Z</time>
      </trkpt>
      <trkpt lat="42.4758" lon="0.18711">
        <ele>1212.4</ele>
        <time>2006-05-26T14:57:34.000Z</time>
      </trkpt>
      <trkpt lat="42.4757" lon="0.18718">
        <ele>1210</ele>
        <time>2006-05-26T14:57:38.000Z</time>
      </trkpt>
      <trkpt lat="42.47563" lon="0.18731">
        <ele>1208.5</ele>
        <time>2006-05-26T14:57:41.000Z</time>
      </trkpt>
      <trkpt lat="42.47559" lon="0.18743">
        <ele>1207.6</ele>
        <time>2006-05-26T14:57:44.000Z</time>
      </trkpt>
      <trkpt lat="42.47555" lon="0.18752">
        <ele>1205.1</ele>
        <time>2006-05-26T14:57:49.000Z</time>
      </trkpt>
      <trkpt lat="42.47548" lon="0.18763">
        <ele>1202.7</ele>
        <time>2006-05-26T14:57:53.000Z</time>
      </trkpt>
      <trkpt lat="42.47542" lon="0.18773">
        <ele>1200.3</ele>
        <time>2006-05-26T14:57:57.000Z</time>
      </trkpt>
      <trkpt lat="42.4754" lon="0.18784">
        <ele>1197.5</ele>
        <time>2006-05-26T14:58:01.000Z</time>
      </trkpt>
      <trkpt lat="42.47542" lon="0.18797">
        <ele>1194.6</ele>
        <time>2006-05-26T14:58:05.000Z</time>
      </trkpt>
      <trkpt lat="42.47546" lon="0.1881">
        <ele>1193.6</ele>
        <time>2006-05-26T14:58:08.000Z</time>
      </trkpt>
      <trkpt lat="42.47548" lon="0.18821">
        <ele>1190.7</ele>
        <time>2006-05-26T14:58:11.000Z</time>
      </trkpt>
      <trkpt lat="42.47551" lon="0.18838">
        <ele>1186.9</ele>
        <time>2006-05-26T14:58:14.000Z</time>
      </trkpt>
      <trkpt lat="42.47555" lon="0.18855">
        <ele>1186.9</ele>
        <time>2006-05-26T14:58:17.000Z</time>
      </trkpt>
      <trkpt lat="42.47557" lon="0.18874">
        <ele>1183.5</ele>
        <time>2006-05-26T14:58:20.000Z</time>
      </trkpt>
      <trkpt lat="42.47557" lon="0.18891">
        <ele>1179.2</ele>
        <time>2006-05-26T14:58:23.000Z</time>
      </trkpt>
      <trkpt lat="42.47557" lon="0.18906">
        <ele>1178.7</ele>
        <time>2006-05-26T14:58:25.000Z</time>
      </trkpt>
      <trkpt lat="42.47555" lon="0.18919">
        <ele>1177.3</ele>
        <time>2006-05-26T14:58:27.000Z</time>
      </trkpt>
      <trkpt lat="42.47555" lon="0.18936">
        <ele>1175.8</ele>
        <time>2006-05-26T14:58:30.000Z</time>
      </trkpt>
      <trkpt lat="42.47551" lon="0.18954">
        <ele>1174.9</ele>
        <time>2006-05-26T14:58:33.000Z</time>
      </trkpt>
      <trkpt lat="42.47546" lon="0.18966">
        <ele>1173.4</ele>
        <time>2006-05-26T14:58:36.000Z</time>
      </trkpt>
      <trkpt lat="42.47542" lon="0.18977">
        <ele>1173.4</ele>
        <time>2006-05-26T14:58:40.000Z</time>
      </trkpt>
      <trkpt lat="42.47535" lon="0.18988">
        <ele>1170.1</ele>
        <time>2006-05-26T14:59:14.000Z</time>
      </trkpt>
      <trkpt lat="42.47529" lon="0.19003">
        <ele>1168.1</ele>
        <time>2006-05-26T14:59:16.000Z</time>
      </trkpt>
      <trkpt lat="42.4752" lon="0.19016">
        <ele>1168.1</ele>
        <time>2006-05-26T14:59:18.000Z</time>
      </trkpt>
      <trkpt lat="42.47514" lon="0.19029">
        <ele>1167.7</ele>
        <time>2006-05-26T14:59:20.000Z</time>
      </trkpt>
      <trkpt lat="42.4751" lon="0.19039">
        <ele>1166.2</ele>
        <time>2006-05-26T14:59:22.000Z</time>
      </trkpt>
      <trkpt lat="42.47499" lon="0.19054">
        <ele>1162.9</ele>
        <time>2006-05-26T14:59:25.000Z</time>
      </trkpt>
      <trkpt lat="42.47493" lon="0.19063">
        <ele>1162.4</ele>
        <time>2006-05-26T14:59:27.000Z</time>
      </trkpt>
      <trkpt lat="42.47486" lon="0.19074">
        <ele>1161.4</ele>
        <time>2006-05-26T14:59:29.000Z</time>
      </trkpt>
      <trkpt lat="42.47477" lon="0.19085">
        <ele>1160.4</ele>
        <time>2006-05-26T14:59:31.000Z</time>
      </trkpt>
      <trkpt lat="42.47469" lon="0.19095">
        <ele>1160</ele>
        <time>2006-05-26T14:59:33.000Z</time>
      </trkpt>
      <trkpt lat="42.47463" lon="0.19106">
        <ele>1157.6</ele>
        <time>2006-05-26T14:59:35.000Z</time>
      </trkpt>
      <trkpt lat="42.47454" lon="0.19117">
        <ele>1157.1</ele>
        <time>2006-05-26T14:59:37.000Z</time>
      </trkpt>
      <trkpt lat="42.47443" lon="0.19127">
        <ele>1157.6</ele>
        <time>2006-05-26T14:59:39.000Z</time>
      </trkpt>
      <trkpt lat="42.47435" lon="0.19138">
        <ele>1156.6</ele>
        <time>2006-05-26T14:59:41.000Z</time>
      </trkpt>
      <trkpt lat="42.47432" lon="0.19136">
        <ele>1143.1</ele>
        <time>2016-10-20T15:52:36.000Z</time>
      </trkpt>
      <trkpt lat="42.47432" lon="0.19136">
        <ele>1143.1</ele>
        <time>2016-10-20T15:52:36.000Z</time>
      </trkpt>
      <trkpt lat="42.47432" lon="0.19134">
        <ele>1143.1</ele>
        <time>2016-10-20T15:53:01.000Z</time>
      </trkpt>
      <trkpt lat="42.47432" lon="0.19133">
        <ele>1144.1</ele>
        <time>2016-10-20T15:53:28.000Z</time>
      </trkpt>
      <trkpt lat="42.47431" lon="0.19133">
        <ele>1144.1</ele>
        <time>2016-10-20T15:53:49.000Z</time>
      </trkpt>
      <trkpt lat="42.4743" lon="0.19131">
        <ele>1144.1</ele>
        <time>2016-10-20T15:54:04.000Z</time>
      </trkpt>
      <trkpt lat="42.47428" lon="0.19127">
        <ele>1144.1</ele>
        <time>2016-10-20T15:54:05.000Z</time>
      </trkpt>
      <trkpt lat="42.47426" lon="0.19124">
        <ele>1141.7</ele>
        <time>2016-10-20T15:54:06.000Z</time>
      </trkpt>
      <trkpt lat="42.4742" lon="0.1912">
        <ele>1138.8</ele>
        <time>2016-10-20T15:54:08.000Z</time>
      </trkpt>
      <trkpt lat="42.47407" lon="0.19098">
        <ele>1133.1</ele>
        <time>2016-10-20T15:54:13.000Z</time>
      </trkpt>
      <trkpt lat="42.47401" lon="0.1909">
        <ele>1129.2</ele>
        <time>2016-10-20T15:54:15.000Z</time>
      </trkpt>
      <trkpt lat="42.47393" lon="0.19076">
        <ele>1124.9</ele>
        <time>2016-10-20T15:54:18.000Z</time>
      </trkpt>
      <trkpt lat="42.47389" lon="0.1907">
        <ele>1123</ele>
        <time>2016-10-20T15:54:20.000Z</time>
      </trkpt>
      <trkpt lat="42.47388" lon="0.19062">
        <ele>1120.6</ele>
        <time>2016-10-20T15:54:23.000Z</time>
      </trkpt>
      <trkpt lat="42.4738" lon="0.19047">
        <ele>1115.8</ele>
        <time>2016-10-20T15:54:27.000Z</time>
      </trkpt>
      <trkpt lat="42.47378" lon="0.19044">
        <ele>1114.8</ele>
        <time>2016-10-20T15:54:28.000Z</time>
      </trkpt>
      <trkpt lat="42.47367" lon="0.19028">
        <ele>1109.5</ele>
        <time>2016-10-20T15:54:32.000Z</time>
      </trkpt>
      <trkpt lat="42.47365" lon="0.19023">
        <ele>1108.1</ele>
        <time>2016-10-20T15:54:33.000Z</time>
      </trkpt>
      <trkpt lat="42.47362" lon="0.19007">
        <ele>1105.2</ele>
        <time>2016-10-20T15:54:36.000Z</time>
      </trkpt>
      <trkpt lat="42.47354" lon="0.18983">
        <ele>1099.4</ele>
        <time>2016-10-20T15:54:40.000Z</time>
      </trkpt>
      <trkpt lat="42.47345" lon="0.18975">
        <ele>1097.5</ele>
        <time>2016-10-20T15:54:42.000Z</time>
      </trkpt>
      <trkpt lat="42.47339" lon="0.18966">
        <ele>1094.6</ele>
        <time>2016-10-20T15:54:44.000Z</time>
      </trkpt>
      <trkpt lat="42.47334" lon="0.18941">
        <ele>1089.8</ele>
        <time>2016-10-20T15:54:49.000Z</time>
      </trkpt>
      <trkpt lat="42.47334" lon="0.18923">
        <ele>1086.9</ele>
        <time>2016-10-20T15:54:53.000Z</time>
      </trkpt>
      <trkpt lat="42.47332" lon="0.18917">
        <ele>1085.9</ele>
        <time>2016-10-20T15:55:03.000Z</time>
      </trkpt>
      <trkpt lat="42.47331" lon="0.18912">
        <ele>1085.5</ele>
        <time>2016-10-20T15:55:25.000Z</time>
      </trkpt>
      <trkpt lat="42.4733" lon="0.1891">
        <ele>1085.5</ele>
        <time>2016-10-20T15:56:17.000Z</time>
      </trkpt>
      <trkpt lat="42.47329" lon="0.18909">
        <ele>1085.5</ele>
        <time>2016-10-20T15:56:22.000Z</time>
      </trkpt>
      <trkpt lat="42.47319" lon="0.18902">
        <ele>1082.1</ele>
        <time>2016-10-20T15:56:27.000Z</time>
      </trkpt>
      <trkpt lat="42.47317" lon="0.18898">
        <ele>1081.1</ele>
        <time>2016-10-20T15:56:28.000Z</time>
      </trkpt>
      <trkpt lat="42.47307" lon="0.18886">
        <ele>1076.8</ele>
        <time>2016-10-20T15:56:31.000Z</time>
      </trkpt>
      <trkpt lat="42.47301" lon="0.18879">
        <ele>1075.4</ele>
        <time>2016-10-20T15:56:33.000Z</time>
      </trkpt>
      <trkpt lat="42.47293" lon="0.18864">
        <ele>1070.6</ele>
        <time>2016-10-20T15:56:38.000Z</time>
      </trkpt>
      <trkpt lat="42.47293" lon="0.18859">
        <ele>1070.6</ele>
        <time>2016-10-20T15:56:39.000Z</time>
      </trkpt>
      <trkpt lat="42.47289" lon="0.18851">
        <ele>1069.1</ele>
        <time>2016-10-20T15:56:41.000Z</time>
      </trkpt>
      <trkpt lat="42.4728" lon="0.18829">
        <ele>1063.8</ele>
        <time>2016-10-20T15:56:46.000Z</time>
      </trkpt>
      <trkpt lat="42.47278" lon="0.18823">
        <ele>1061.9</ele>
        <time>2016-10-20T15:56:48.000Z</time>
      </trkpt>
      <trkpt lat="42.47276" lon="0.1881">
        <ele>1058.1</ele>
        <time>2016-10-20T15:56:51.000Z</time>
      </trkpt>
      <trkpt lat="42.47265" lon="0.18787">
        <ele>1052.8</ele>
        <time>2016-10-20T15:56:56.000Z</time>
      </trkpt>
      <trkpt lat="42.47261" lon="0.18755">
        <ele>1047</ele>
        <time>2016-10-20T15:57:02.000Z</time>
      </trkpt>
      <trkpt lat="42.47262" lon="0.18753">
        <ele>1046.1</ele>
        <time>2016-10-20T15:57:04.000Z</time>
      </trkpt>
      <trkpt lat="42.47259" lon="0.18744">
        <ele>1046.1</ele>
        <time>2016-10-20T15:57:19.000Z</time>
      </trkpt>
      <trkpt lat="42.47258" lon="0.1874">
        <ele>1045.6</ele>
        <time>2016-10-20T15:57:57.000Z</time>
      </trkpt>
      <trkpt lat="42.47257" lon="0.1874">
        <ele>1045.6</ele>
        <time>2016-10-20T15:58:07.000Z</time>
      </trkpt>
      <trkpt lat="42.47247" lon="0.18729">
        <ele>1043.7</ele>
        <time>2016-10-20T15:58:12.000Z</time>
      </trkpt>
      <trkpt lat="42.47229" lon="0.18711">
        <ele>1037.4</ele>
        <time>2016-10-20T15:58:17.000Z</time>
      </trkpt>
      <trkpt lat="42.47221" lon="0.18704">
        <ele>1035</ele>
        <time>2016-10-20T15:58:19.000Z</time>
      </trkpt>
      <trkpt lat="42.47216" lon="0.18677">
        <ele>1029.7</ele>
        <time>2016-10-20T15:58:24.000Z</time>
      </trkpt>
      <trkpt lat="42.47214" lon="0.18673">
        <ele>1029.2</ele>
        <time>2016-10-20T15:58:25.000Z</time>
      </trkpt>
      <trkpt lat="42.4721" lon="0.1866">
        <ele>1026.3</ele>
        <time>2016-10-20T15:58:28.000Z</time>
      </trkpt>
      <trkpt lat="42.47203" lon="0.18653">
        <ele>1023.9</ele>
        <time>2016-10-20T15:58:31.000Z</time>
      </trkpt>
      <trkpt lat="42.472" lon="0.1865">
        <ele>1023</ele>
        <time>2016-10-20T15:58:32.000Z</time>
      </trkpt>
      <trkpt lat="42.47201" lon="0.18639">
        <ele>1019.6</ele>
        <time>2016-10-20T15:58:35.000Z</time>
      </trkpt>
      <trkpt lat="42.47203" lon="0.18622">
        <ele>1017.2</ele>
        <time>2016-10-20T15:58:38.000Z</time>
      </trkpt>
      <trkpt lat="42.47202" lon="0.18613">
        <ele>1016.7</ele>
        <time>2016-10-20T15:58:49.000Z</time>
      </trkpt>
      <trkpt lat="42.47202" lon="0.1861">
        <ele>1016.7</ele>
        <time>2016-10-20T15:59:10.000Z</time>
      </trkpt>
      <trkpt lat="42.47201" lon="0.18608">
        <ele>1016.2</ele>
        <time>2016-10-20T15:59:44.000Z</time>
      </trkpt>
      <trkpt lat="42.472" lon="0.18606">
        <ele>1016.2</ele>
        <time>2016-10-20T16:00:18.000Z</time>
      </trkpt>
      <trkpt lat="42.47201" lon="0.18601">
        <ele>1016.2</ele>
        <time>2016-10-20T16:00:36.000Z</time>
      </trkpt>
      <trkpt lat="42.47192" lon="0.18591">
        <ele>1013.8</ele>
        <time>2016-10-20T16:00:40.000Z</time>
      </trkpt>
      <trkpt lat="42.47181" lon="0.18577">
        <ele>1009</ele>
        <time>2016-10-20T16:00:45.000Z</time>
      </trkpt>
      <trkpt lat="42.4718" lon="0.18573">
        <ele>1008.1</ele>
        <time>2016-10-20T16:00:47.000Z</time>
      </trkpt>
      <trkpt lat="42.4718" lon="0.18571">
        <ele>1007.1</ele>
        <time>2016-10-20T16:00:48.000Z</time>
      </trkpt>
      <trkpt lat="42.47176" lon="0.18563">
        <ele>1005.7</ele>
        <time>2016-10-20T16:00:52.000Z</time>
      </trkpt>
      <trkpt lat="42.47175" lon="0.18554">
        <ele>1003.8</ele>
        <time>2016-10-20T16:01:06.000Z</time>
      </trkpt>
      <trkpt lat="42.47174" lon="0.18548">
        <ele>1003.3</ele>
        <time>2016-10-20T16:01:38.000Z</time>
      </trkpt>
      <trkpt lat="42.47173" lon="0.18544">
        <ele>1003.3</ele>
        <time>2016-10-20T16:01:46.000Z</time>
      </trkpt>
      <trkpt lat="42.47161" lon="0.18521">
        <ele>999</ele>
        <time>2016-10-20T16:01:52.000Z</time>
      </trkpt>
      <trkpt lat="42.47146" lon="0.18508">
        <ele>996.5</ele>
        <time>2016-10-20T16:01:57.000Z</time>
      </trkpt>
      <trkpt lat="42.47131" lon="0.18486">
        <ele>991.7</ele>
        <time>2016-10-20T16:02:02.000Z</time>
      </trkpt>
      <trkpt lat="42.47127" lon="0.18474">
        <ele>989.3</ele>
        <time>2016-10-20T16:02:06.000Z</time>
      </trkpt>
      <trkpt lat="42.47125" lon="0.18471">
        <ele>987.9</ele>
        <time>2016-10-20T16:02:19.000Z</time>
      </trkpt>
      <trkpt lat="42.47123" lon="0.18472">
        <ele>987.9</ele>
        <time>2016-10-20T16:02:51.000Z</time>
      </trkpt>
      <trkpt lat="42.47121" lon="0.18471">
        <ele>987.9</ele>
        <time>2016-10-20T16:02:55.000Z</time>
      </trkpt>
      <trkpt lat="42.47111" lon="0.18448">
        <ele>984</ele>
        <time>2016-10-20T16:03:00.000Z</time>
      </trkpt>
      <trkpt lat="42.47107" lon="0.18439">
        <ele>982.1</ele>
        <time>2016-10-20T16:03:02.000Z</time>
      </trkpt>
      <trkpt lat="42.47102" lon="0.18434">
        <ele>981.2</ele>
        <time>2016-10-20T16:03:04.000Z</time>
      </trkpt>
      <trkpt lat="42.47095" lon="0.18428">
        <ele>978.3</ele>
        <time>2016-10-20T16:03:08.000Z</time>
      </trkpt>
      <trkpt lat="42.47092" lon="0.18424">
        <ele>977.8</ele>
        <time>2016-10-20T16:03:23.000Z</time>
      </trkpt>
      <trkpt lat="42.47088" lon="0.18414">
        <ele>976.8</ele>
        <time>2016-10-20T16:03:31.000Z</time>
      </trkpt>
      <trkpt lat="42.47077" lon="0.18391">
        <ele>972</ele>
        <time>2016-10-20T16:03:36.000Z</time>
      </trkpt>
      <trkpt lat="42.47067" lon="0.1838">
        <ele>967.2</ele>
        <time>2016-10-20T16:03:41.000Z</time>
      </trkpt>
      <trkpt lat="42.47063" lon="0.18368">
        <ele>963.4</ele>
        <time>2016-10-20T16:03:44.000Z</time>
      </trkpt>
      <trkpt lat="42.47064" lon="0.18334">
        <ele>959.5</ele>
        <time>2016-10-20T16:03:49.000Z</time>
      </trkpt>
      <trkpt lat="42.47058" lon="0.18304">
        <ele>955.7</ele>
        <time>2016-10-20T16:03:54.000Z</time>
      </trkpt>
      <trkpt lat="42.47048" lon="0.18266">
        <ele>950.4</ele>
        <time>2016-10-20T16:03:59.000Z</time>
      </trkpt>
      <trkpt lat="42.47039" lon="0.18244">
        <ele>946.6</ele>
        <time>2016-10-20T16:04:02.000Z</time>
      </trkpt>
      <trkpt lat="42.47032" lon="0.18223">
        <ele>943.2</ele>
        <time>2016-10-20T16:04:05.000Z</time>
      </trkpt>
      <trkpt lat="42.47035" lon="0.18202">
        <ele>940.8</ele>
        <time>2016-10-20T16:04:08.000Z</time>
      </trkpt>
      <trkpt lat="42.47036" lon="0.18195">
        <ele>939.3</ele>
        <time>2016-10-20T16:04:09.000Z</time>
      </trkpt>
      <trkpt lat="42.47033" lon="0.18179">
        <ele>936.5</ele>
        <time>2016-10-20T16:04:20.000Z</time>
      </trkpt>
      <trkpt lat="42.47029" lon="0.18177">
        <ele>936.5</ele>
        <time>2016-10-20T16:04:52.000Z</time>
      </trkpt>
      <trkpt lat="42.47029" lon="0.18179">
        <ele>936.5</ele>
        <time>2016-10-20T16:05:07.000Z</time>
      </trkpt>
      <trkpt lat="42.47029" lon="0.18179">
        <ele>936.5</ele>
        <time>2016-10-20T16:05:13.000Z</time>
      </trkpt>
      <trkpt lat="42.47016" lon="0.18182">
        <ele>936.5</ele>
        <time>2016-10-20T16:05:20.000Z</time>
      </trkpt>
      <trkpt lat="42.47001" lon="0.18187">
        <ele>935.5</ele>
        <time>2016-10-20T16:05:25.000Z</time>
      </trkpt>
      <trkpt lat="42.46982" lon="0.18205">
        <ele>934.1</ele>
        <time>2016-10-20T16:05:31.000Z</time>
      </trkpt>
      <trkpt lat="42.46974" lon="0.18205">
        <ele>934.1</ele>
        <time>2016-10-20T16:05:34.000Z</time>
      </trkpt>
      <trkpt lat="42.46964" lon="0.18215">
        <ele>935.5</ele>
        <time>2016-10-20T16:05:39.000Z</time>
      </trkpt>
      <trkpt lat="42.46946" lon="0.18224">
        <ele>935.5</ele>
        <time>2016-10-20T16:05:45.000Z</time>
      </trkpt>
      <trkpt lat="42.46935" lon="0.18232">
        <ele>934.1</ele>
        <time>2016-10-20T16:05:48.000Z</time>
      </trkpt>
      <trkpt lat="42.46917" lon="0.1824">
        <ele>934.1</ele>
        <time>2016-10-20T16:05:54.000Z</time>
      </trkpt>
      <trkpt lat="42.46889" lon="0.18265">
        <ele>934.1</ele>
        <time>2016-10-20T16:06:07.000Z</time>
      </trkpt>
      <trkpt lat="42.46874" lon="0.18283">
        <ele>934.1</ele>
        <time>2016-10-20T16:06:14.000Z</time>
      </trkpt>
      <trkpt lat="42.4685" lon="0.18302">
        <ele>933.6</ele>
        <time>2016-10-20T16:06:20.000Z</time>
      </trkpt>
      <trkpt lat="42.46829" lon="0.18309">
        <ele>930.7</ele>
        <time>2016-10-20T16:06:25.000Z</time>
      </trkpt>
      <trkpt lat="42.46812" lon="0.18307">
        <ele>928.3</ele>
        <time>2016-10-20T16:06:28.000Z</time>
      </trkpt>
      <trkpt lat="42.4679" lon="0.1831">
        <ele>926.4</ele>
        <time>2016-10-20T16:06:31.000Z</time>
      </trkpt>
      <trkpt lat="42.46756" lon="0.18325">
        <ele>922</ele>
        <time>2016-10-20T16:06:37.000Z</time>
      </trkpt>
      <trkpt lat="42.46736" lon="0.18322">
        <ele>920.1</ele>
        <time>2016-10-20T16:06:40.000Z</time>
      </trkpt>
      <trkpt lat="42.46711" lon="0.1833">
        <ele>917.2</ele>
        <time>2016-10-20T16:06:45.000Z</time>
      </trkpt>
      <trkpt lat="42.46696" lon="0.18336">
        <ele>916.8</ele>
        <time>2016-10-20T16:06:48.000Z</time>
      </trkpt>
      <trkpt lat="42.46679" lon="0.18344">
        <ele>915.8</ele>
        <time>2016-10-20T16:06:52.000Z</time>
      </trkpt>
      <trkpt lat="42.46675" lon="0.18347">
        <ele>915.3</ele>
        <time>2016-10-20T16:06:53.000Z</time>
      </trkpt>
      <trkpt lat="42.46664" lon="0.18347">
        <ele>913.9</ele>
        <time>2016-10-20T16:06:56.000Z</time>
      </trkpt>
      <trkpt lat="42.46644" lon="0.1835">
        <ele>910</ele>
        <time>2016-10-20T16:07:01.000Z</time>
      </trkpt>
      <trkpt lat="42.4664" lon="0.18351">
        <ele>910</ele>
        <time>2016-10-20T16:07:02.000Z</time>
      </trkpt>
      <trkpt lat="42.46632" lon="0.18353">
        <ele>909.5</ele>
        <time>2016-10-20T16:07:04.000Z</time>
      </trkpt>
      <trkpt lat="42.46619" lon="0.18354">
        <ele>908.6</ele>
        <time>2016-10-20T16:07:07.000Z</time>
      </trkpt>
      <trkpt lat="42.46597" lon="0.18358">
        <ele>905.2</ele>
        <time>2016-10-20T16:07:12.000Z</time>
      </trkpt>
      <trkpt lat="42.46584" lon="0.18367">
        <ele>904.3</ele>
        <time>2016-10-20T16:07:18.000Z</time>
      </trkpt>
      <trkpt lat="42.46578" lon="0.18374">
        <ele>903.8</ele>
        <time>2016-10-20T16:07:35.000Z</time>
      </trkpt>
      <trkpt lat="42.46575" lon="0.18374">
        <ele>903.3</ele>
        <time>2016-10-20T16:08:11.000Z</time>
      </trkpt>
      <trkpt lat="42.46575" lon="0.18375">
        <ele>903.3</ele>
        <time>2016-10-20T16:08:21.000Z</time>
      </trkpt>
      <trkpt lat="42.46554" lon="0.18372">
        <ele>902.3</ele>
        <time>2016-10-20T16:08:30.000Z</time>
      </trkpt>
      <trkpt lat="42.46539" lon="0.18372">
        <ele>901.8</ele>
        <time>2016-10-20T16:08:34.000Z</time>
      </trkpt>
      <trkpt lat="42.46517" lon="0.18376">
        <ele>899.9</ele>
        <time>2016-10-20T16:08:39.000Z</time>
      </trkpt>
      <trkpt lat="42.46478" lon="0.18387">
        <ele>898.5</ele>
        <time>2016-10-20T16:08:49.000Z</time>
      </trkpt>
      <trkpt lat="42.46452" lon="0.18381">
        <ele>898</ele>
        <time>2016-10-20T16:08:56.000Z</time>
      </trkpt>
      <trkpt lat="42.46452" lon="0.18381">
        <ele>898</ele>
        <time>2016-10-20T16:08:56.000Z</time>
      </trkpt>
      <trkpt lat="42.46418" lon="0.18395">
        <ele>896.6</ele>
        <time>2016-10-20T16:09:07.000Z</time>
      </trkpt>
      <trkpt lat="42.46417" lon="0.18395">
        <ele>896.6</ele>
        <time>2016-10-20T16:09:34.000Z</time>
      </trkpt>
      <trkpt lat="42.46418" lon="0.18393">
        <ele>896.6</ele>
        <time>2016-10-20T16:09:54.000Z</time>
      </trkpt>
      <trkpt lat="42.46418" lon="0.18393">
        <ele>896.6</ele>
        <time>2016-10-20T16:09:54.000Z</time>
      </trkpt>
      <trkpt lat="42.46418" lon="0.18393">
        <ele>896.6</ele>
        <time>2016-10-20T16:10:03.000Z</time>
      </trkpt>
      <trkpt lat="42.46402" lon="0.18397">
        <ele>896.1</ele>
        <time>2016-10-20T16:10:09.000Z</time>
      </trkpt>
      <trkpt lat="42.46388" lon="0.18406">
        <ele>894.6</ele>
        <time>2016-10-20T16:10:13.000Z</time>
      </trkpt>
      <trkpt lat="42.46371" lon="0.18417">
        <ele>893.2</ele>
        <time>2016-10-20T16:10:17.000Z</time>
      </trkpt>
      <trkpt lat="42.46357" lon="0.18423">
        <ele>892.7</ele>
        <time>2016-10-20T16:10:20.000Z</time>
      </trkpt>
      <trkpt lat="42.46325" lon="0.1844">
        <ele>892.7</ele>
        <time>2016-10-20T16:10:27.000Z</time>
      </trkpt>
      <trkpt lat="42.46314" lon="0.1845">
        <ele>892.7</ele>
        <time>2016-10-20T16:10:30.000Z</time>
      </trkpt>
      <trkpt lat="42.46257" lon="0.18496">
        <ele>892.2</ele>
        <time>2016-10-20T16:10:44.000Z</time>
      </trkpt>
      <trkpt lat="42.4625" lon="0.18505">
        <ele>892.2</ele>
        <time>2016-10-20T16:10:46.000Z</time>
      </trkpt>
      <trkpt lat="42.46246" lon="0.18509">
        <ele>892.2</ele>
        <time>2016-10-20T16:10:47.000Z</time>
      </trkpt>
      <trkpt lat="42.46243" lon="0.18513">
        <ele>892.2</ele>
        <time>2016-10-20T16:10:48.000Z</time>
      </trkpt>
      <trkpt lat="42.46233" lon="0.18524">
        <ele>892.2</ele>
        <time>2016-10-20T16:10:51.000Z</time>
      </trkpt>
      <trkpt lat="42.4623" lon="0.18528">
        <ele>892.2</ele>
        <time>2016-10-20T16:10:52.000Z</time>
      </trkpt>
      <trkpt lat="42.46211" lon="0.18542">
        <ele>892.2</ele>
        <time>2016-10-20T16:10:57.000Z</time>
      </trkpt>
      <trkpt lat="42.46195" lon="0.18561">
        <ele>892.2</ele>
        <time>2016-10-20T16:11:02.000Z</time>
      </trkpt>
      <trkpt lat="42.46164" lon="0.18606">
        <ele>892.2</ele>
        <time>2016-10-20T16:11:13.000Z</time>
      </trkpt>
      <trkpt lat="42.46162" lon="0.18611">
        <ele>892.2</ele>
        <time>2016-10-20T16:11:14.000Z</time>
      </trkpt>
      <trkpt lat="42.4616" lon="0.18616">
        <ele>892.2</ele>
        <time>2016-10-20T16:11:15.000Z</time>
      </trkpt>
      <trkpt lat="42.46122" lon="0.18693">
        <ele>894.2</ele>
        <time>2016-10-20T16:11:31.000Z</time>
      </trkpt>
      <trkpt lat="42.461" lon="0.18719">
        <ele>893.7</ele>
        <time>2016-10-20T16:11:37.000Z</time>
      </trkpt>
      <trkpt lat="42.46088" lon="0.18731">
        <ele>892.2</ele>
        <time>2016-10-20T16:11:40.000Z</time>
      </trkpt>
      <trkpt lat="42.46045" lon="0.18802">
        <ele>890.3</ele>
        <time>2016-10-20T16:11:40.000Z</time>
      </trkpt>
      <trkpt lat="42.46015" lon="0.1884">
        <ele>896</ele>
        <time>2010-11-02T11:36:23.000Z</time>
      </trkpt>
      <trkpt lat="42.46015" lon="0.1884">
        <ele>887.9</ele>
        <time>2010-11-02T11:36:23.000Z</time>
      </trkpt>
      <trkpt lat="42.45968" lon="0.18777">
        <ele>895</ele>
        <time>2010-11-02T11:36:56.000Z</time>
      </trkpt>
      <trkpt lat="42.45922" lon="0.18765">
        <ele>893.2</ele>
        <time>2010-11-02T11:37:20.000Z</time>
      </trkpt>
      <trkpt lat="42.45903" lon="0.18753">
        <ele>894.2</ele>
        <time>2010-11-02T11:37:30.000Z</time>
      </trkpt>
      <trkpt lat="42.45895" lon="0.18746">
        <ele>895.1</ele>
        <time>2010-11-02T11:37:35.000Z</time>
      </trkpt>
      <trkpt lat="42.45883" lon="0.18731">
        <ele>896.6</ele>
        <time>2010-11-02T11:37:43.000Z</time>
      </trkpt>
      <trkpt lat="42.45877" lon="0.18716">
        <ele>897</ele>
        <time>2010-11-02T11:37:50.000Z</time>
      </trkpt>
      <trkpt lat="42.45877" lon="0.18714">
        <ele>896.6</ele>
        <time>2010-11-02T11:37:50.000Z</time>
      </trkpt>
      <trkpt lat="42.45872" lon="0.18708">
        <ele>898</ele>
        <time>2010-11-02T11:37:53.000Z</time>
      </trkpt>
      <trkpt lat="42.45864" lon="0.18691">
        <ele>899</ele>
        <time>2010-11-02T11:38:01.000Z</time>
      </trkpt>
      <trkpt lat="42.4586" lon="0.18677">
        <ele>899</ele>
        <time>2010-11-02T11:38:06.000Z</time>
      </trkpt>
      <trkpt lat="42.45857" lon="0.18661">
        <ele>899.5</ele>
        <time>2010-11-02T11:38:13.000Z</time>
      </trkpt>
      <trkpt lat="42.45852" lon="0.1866">
        <ele>900.4</ele>
        <time>2010-11-02T11:38:15.000Z</time>
      </trkpt>
      <trkpt lat="42.45832" lon="0.18663">
        <ele>902.3</ele>
        <time>2010-11-02T11:38:25.000Z</time>
      </trkpt>
      <trkpt lat="42.4582" lon="0.18666">
        <ele>902.8</ele>
        <time>2010-11-02T11:38:31.000Z</time>
      </trkpt>
      <trkpt lat="42.45817" lon="0.18669">
        <ele>903.8</ele>
        <time>2010-11-02T11:38:33.000Z</time>
      </trkpt>
      <trkpt lat="42.45802" lon="0.1866">
        <ele>905.2</ele>
        <time>2010-11-02T11:38:41.000Z</time>
      </trkpt>
      <trkpt lat="42.45783" lon="0.18631">
        <ele>903.8</ele>
        <time>2010-11-02T11:38:56.000Z</time>
      </trkpt>
      <trkpt lat="42.4578" lon="0.18625">
        <ele>902.8</ele>
        <time>2010-11-02T11:38:58.000Z</time>
      </trkpt>
      <trkpt lat="42.45757" lon="0.1861">
        <ele>898.5</ele>
        <time>2010-11-02T11:39:11.000Z</time>
      </trkpt>
      <trkpt lat="42.45749" lon="0.1861">
        <ele>897.5</ele>
        <time>2010-11-02T11:39:15.000Z</time>
      </trkpt>
      <trkpt lat="42.45733" lon="0.18612">
        <ele>896.1</ele>
        <time>2010-11-02T11:39:23.000Z</time>
      </trkpt>
      <trkpt lat="42.4572" lon="0.18612">
        <ele>895.6</ele>
        <time>2010-11-02T11:39:30.000Z</time>
      </trkpt>
      <trkpt lat="42.4571" lon="0.18615">
        <ele>896.1</ele>
        <time>2010-11-02T11:39:35.000Z</time>
      </trkpt>
      <trkpt lat="42.45683" lon="0.18625">
        <ele>897.5</ele>
        <time>2010-11-02T11:39:49.000Z</time>
      </trkpt>
      <trkpt lat="42.4567" lon="0.18629">
        <ele>898</ele>
        <time>2010-11-02T11:39:56.000Z</time>
      </trkpt>
      <trkpt lat="42.45668" lon="0.18633">
        <ele>898</ele>
        <time>2010-11-02T11:39:57.000Z</time>
      </trkpt>
      <trkpt lat="42.45663" lon="0.18645">
        <ele>899</ele>
        <time>2010-11-02T11:40:02.000Z</time>
      </trkpt>
      <trkpt lat="42.45655" lon="0.1866">
        <ele>901.4</ele>
        <time>2010-11-02T11:40:10.000Z</time>
      </trkpt>
      <trkpt lat="42.45647" lon="0.1866">
        <ele>902.8</ele>
        <time>2010-11-02T11:40:13.000Z</time>
      </trkpt>
      <trkpt lat="42.45627" lon="0.18648">
        <ele>904.7</ele>
        <time>2010-11-02T11:40:24.000Z</time>
      </trkpt>
      <trkpt lat="42.45612" lon="0.18638">
        <ele>904.7</ele>
        <time>2010-11-02T11:40:33.000Z</time>
      </trkpt>
      <trkpt lat="42.456" lon="0.18637">
        <ele>905.2</ele>
        <time>2010-11-02T11:40:39.000Z</time>
      </trkpt>
      <trkpt lat="42.4558" lon="0.18636">
        <ele>905.7</ele>
        <time>2010-11-02T11:40:49.000Z</time>
      </trkpt>
      <trkpt lat="42.45558" lon="0.18639">
        <ele>905.7</ele>
        <time>2010-11-02T11:41:00.000Z</time>
      </trkpt>
      <trkpt lat="42.45545" lon="0.18646">
        <ele>906.2</ele>
        <time>2010-11-02T11:41:07.000Z</time>
      </trkpt>
      <trkpt lat="42.45539" lon="0.18652">
        <ele>906.2</ele>
        <time>2010-11-02T11:41:11.000Z</time>
      </trkpt>
      <trkpt lat="42.45518" lon="0.1866">
        <ele>905.2</ele>
        <time>2010-11-02T11:41:22.000Z</time>
      </trkpt>
      <trkpt lat="42.45488" lon="0.18686">
        <ele>905.2</ele>
        <time>2010-11-02T11:41:31.000Z</time>
      </trkpt>
      <trkpt lat="42.45467" lon="0.18701">
        <ele>905.2</ele>
        <time>2010-11-02T11:41:37.000Z</time>
      </trkpt>
      <trkpt lat="42.45452" lon="0.18673">
        <ele>905.2</ele>
        <time>2010-11-02T11:41:44.000Z</time>
      </trkpt>
      <trkpt lat="42.45438" lon="0.18648">
        <ele>903.3</ele>
        <time>2010-11-02T11:41:52.000Z</time>
      </trkpt>
      <trkpt lat="42.4543" lon="0.18634">
        <ele>901.4</ele>
        <time>2010-11-02T11:42:02.000Z</time>
      </trkpt>
      <trkpt lat="42.45415" lon="0.18636">
        <ele>899.9</ele>
        <time>2010-11-02T11:42:09.000Z</time>
      </trkpt>
      <trkpt lat="42.45403" lon="0.18622">
        <ele>899.5</ele>
        <time>2010-11-02T11:42:11.000Z</time>
      </trkpt>
      <trkpt lat="42.45392" lon="0.18578">
        <ele>895.6</ele>
        <time>2010-11-02T11:42:25.000Z</time>
      </trkpt>
      <trkpt lat="42.45382" lon="0.18552">
        <ele>891.8</ele>
        <time>2010-11-02T11:42:37.000Z</time>
      </trkpt>
      <trkpt lat="42.45373" lon="0.18523">
        <ele>887.4</ele>
        <time>2010-11-02T11:42:55.000Z</time>
      </trkpt>
      <trkpt lat="42.4535" lon="0.18531">
        <ele>883.1</ele>
        <time>2010-11-02T11:43:15.000Z</time>
      </trkpt>
      <trkpt lat="42.45326" lon="0.1855">
        <ele>878.8</ele>
        <time>2010-11-02T11:43:27.000Z</time>
      </trkpt>
      <trkpt lat="42.45309" lon="0.18564">
        <ele>875.4</ele>
        <time>2010-11-02T11:43:39.000Z</time>
      </trkpt>
      <trkpt lat="42.45296" lon="0.18586">
        <ele>872.5</ele>
        <time>2010-11-02T11:43:47.000Z</time>
      </trkpt>
      <trkpt lat="42.45301" lon="0.18537">
        <ele>867.2</ele>
        <time>2010-11-02T11:43:57.000Z</time>
      </trkpt>
      <trkpt lat="42.45323" lon="0.18482">
        <ele>865.3</ele>
        <time>2010-11-02T11:44:03.000Z</time>
      </trkpt>
      <trkpt lat="42.45337" lon="0.18447">
        <ele>863.9</ele>
        <time>2010-11-02T11:44:09.000Z</time>
      </trkpt>
      <trkpt lat="42.45359" lon="0.18421">
        <ele>862.9</ele>
        <time>2010-11-02T11:44:16.000Z</time>
      </trkpt>
      <trkpt lat="42.45358" lon="0.18384">
        <ele>862</ele>
        <time>2010-11-02T11:44:22.000Z</time>
      </trkpt>
      <trkpt lat="42.45364" lon="0.18342">
        <ele>861</ele>
        <time>2010-11-02T11:44:28.000Z</time>
      </trkpt>
      <trkpt lat="42.45393" lon="0.18297">
        <ele>859.6</ele>
        <time>2010-11-02T11:44:41.000Z</time>
      </trkpt>
      <trkpt lat="42.45409" lon="0.18271">
        <ele>855.7</ele>
        <time>2010-11-02T11:44:52.000Z</time>
      </trkpt>
      <trkpt lat="42.45397" lon="0.18217">
        <ele>854.8</ele>
        <time>2010-11-02T11:44:55.000Z</time>
      </trkpt>
      <trkpt lat="42.454" lon="0.18156">
        <ele>850.4</ele>
        <time>2010-11-02T11:45:11.000Z</time>
      </trkpt>
      <trkpt lat="42.45447" lon="0.18107">
        <ele>849</ele>
        <time>2010-11-02T11:45:15.000Z</time>
      </trkpt>
      <trkpt lat="42.45453" lon="0.18069">
        <ele>846.1</ele>
        <time>2010-11-02T11:45:30.000Z</time>
      </trkpt>
      <trkpt lat="42.45453" lon="0.18054">
        <ele>844.2</ele>
        <time>2010-11-02T11:45:35.000Z</time>
      </trkpt>
      <trkpt lat="42.45452" lon="0.1804">
        <ele>844.2</ele>
        <time>2010-11-02T11:45:40.000Z</time>
      </trkpt>
      <trkpt lat="42.45452" lon="0.18001">
        <ele>841.8</ele>
        <time>2010-11-02T11:45:55.000Z</time>
      </trkpt>
      <trkpt lat="42.45452" lon="0.18001">
        <ele>841.8</ele>
        <time>2010-11-02T11:45:55.000Z</time>
      </trkpt>
      <trkpt lat="42.45448" lon="0.17988">
        <ele>840.8</ele>
        <time>2010-11-02T11:46:00.000Z</time>
      </trkpt>
      <trkpt lat="42.45443" lon="0.17977">
        <ele>840.3</ele>
        <time>2010-11-02T11:46:04.000Z</time>
      </trkpt>
      <trkpt lat="42.45436" lon="0.17961">
        <ele>839.8</ele>
        <time>2010-11-02T11:46:12.000Z</time>
      </trkpt>
      <trkpt lat="42.45429" lon="0.17938">
        <ele>838.9</ele>
        <time>2010-11-02T11:46:21.000Z</time>
      </trkpt>
      <trkpt lat="42.45413" lon="0.17919">
        <ele>838.4</ele>
        <time>2010-11-02T11:46:32.000Z</time>
      </trkpt>
      <trkpt lat="42.45384" lon="0.17906">
        <ele>839.8</ele>
        <time>2010-11-02T11:46:47.000Z</time>
      </trkpt>
      <trkpt lat="42.45379" lon="0.17904">
        <ele>841</ele>
        <time>2010-11-02T11:47:11.000Z</time>
      </trkpt>
      <trkpt lat="42.45325" lon="0.17866">
        <ele>846</ele>
        <time>2010-11-02T11:47:46.000Z</time>
      </trkpt>
      <trkpt lat="42.45288" lon="0.17823">
        <ele>850</ele>
        <time>2010-11-02T11:48:13.000Z</time>
      </trkpt>
      <trkpt lat="42.45243" lon="0.17779">
        <ele>858</ele>
        <time>2014-07-04T10:39:09.000Z</time>
      </trkpt>
      <trkpt lat="42.45234" lon="0.17785">
        <ele>859.6</ele>
        <time>2014-07-04T10:39:24.000Z</time>
      </trkpt>
      <trkpt lat="42.45219" lon="0.178">
        <ele>860</ele>
        <time>2014-07-04T10:39:40.000Z</time>
      </trkpt>
      <trkpt lat="42.45219" lon="0.17801">
        <ele>860</ele>
        <time>2014-07-04T10:39:41.000Z</time>
      </trkpt>
      <trkpt lat="42.45215" lon="0.17822">
        <ele>860.5</ele>
        <time>2014-07-04T10:39:56.000Z</time>
      </trkpt>
      <trkpt lat="42.45211" lon="0.17838">
        <ele>860</ele>
        <time>2014-07-04T10:40:05.000Z</time>
      </trkpt>
      <trkpt lat="42.45203" lon="0.17872">
        <ele>859.1</ele>
        <time>2014-07-04T10:40:18.000Z</time>
      </trkpt>
      <trkpt lat="42.45202" lon="0.17878">
        <ele>859.6</ele>
        <time>2014-07-04T10:40:20.000Z</time>
      </trkpt>
      <trkpt lat="42.45201" lon="0.17891">
        <ele>860</ele>
        <time>2014-07-04T10:40:27.000Z</time>
      </trkpt>
      <trkpt lat="42.45189" lon="0.17913">
        <ele>862.9</ele>
        <time>2014-07-04T10:40:43.000Z</time>
      </trkpt>
      <trkpt lat="42.45186" lon="0.17916">
        <ele>863.4</ele>
        <time>2014-07-04T10:40:57.000Z</time>
      </trkpt>
      <trkpt lat="42.45186" lon="0.17916">
        <ele>863.4</ele>
        <time>2014-07-04T10:41:13.000Z</time>
      </trkpt>
      <trkpt lat="42.45183" lon="0.17926">
        <ele>862.4</ele>
        <time>2014-07-04T10:41:20.000Z</time>
      </trkpt>
      <trkpt lat="42.45179" lon="0.17959">
        <ele>862</ele>
        <time>2014-07-04T10:41:29.000Z</time>
      </trkpt>
      <trkpt lat="42.45173" lon="0.17968">
        <ele>861</ele>
        <time>2014-07-04T10:41:34.000Z</time>
      </trkpt>
      <trkpt lat="42.45159" lon="0.17978">
        <ele>859.6</ele>
        <time>2014-07-04T10:41:43.000Z</time>
      </trkpt>
      <trkpt lat="42.45138" lon="0.17987">
        <ele>856.7</ele>
        <time>2014-07-04T10:41:59.000Z</time>
      </trkpt>
      <trkpt lat="42.45122" lon="0.1799">
        <ele>854.3</ele>
        <time>2014-07-04T10:42:10.000Z</time>
      </trkpt>
      <trkpt lat="42.45101" lon="0.17999">
        <ele>851.4</ele>
        <time>2014-07-04T10:42:26.000Z</time>
      </trkpt>
      <trkpt lat="42.45081" lon="0.1801">
        <ele>850.4</ele>
        <time>2014-07-04T10:42:40.000Z</time>
      </trkpt>
      <trkpt lat="42.45055" lon="0.18022">
        <ele>853.3</ele>
        <time>2014-07-04T10:42:54.000Z</time>
      </trkpt>
      <trkpt lat="42.45046" lon="0.18023">
        <ele>857.2</ele>
        <time>2014-07-04T10:42:58.000Z</time>
      </trkpt>
      <trkpt lat="42.45036" lon="0.18024">
        <ele>860.5</ele>
        <time>2014-07-04T10:43:04.000Z</time>
      </trkpt>
      <trkpt lat="42.45019" lon="0.18032">
        <ele>863.4</ele>
        <time>2014-07-04T10:43:15.000Z</time>
      </trkpt>
      <trkpt lat="42.45007" lon="0.18038">
        <ele>863.9</ele>
        <time>2014-07-04T10:43:24.000Z</time>
      </trkpt>
      <trkpt lat="42.45" lon="0.18046">
        <ele>865.8</ele>
        <time>2014-07-04T10:43:36.000Z</time>
      </trkpt>
      <trkpt lat="42.44987" lon="0.18062">
        <ele>871.1</ele>
        <time>2014-07-04T10:43:48.000Z</time>
      </trkpt>
      <trkpt lat="42.44977" lon="0.18075">
        <ele>875.9</ele>
        <time>2014-07-04T10:44:01.000Z</time>
      </trkpt>
      <trkpt lat="42.44977" lon="0.18076">
        <ele>876.4</ele>
        <time>2014-07-04T10:44:14.000Z</time>
      </trkpt>
      <trkpt lat="42.4497" lon="0.18089">
        <ele>876.4</ele>
        <time>2014-07-04T10:44:24.000Z</time>
      </trkpt>
      <trkpt lat="42.44956" lon="0.18105">
        <ele>877.3</ele>
        <time>2014-07-04T10:44:38.000Z</time>
      </trkpt>
      <trkpt lat="42.44943" lon="0.18115">
        <ele>878.8</ele>
        <time>2014-07-04T10:44:49.000Z</time>
      </trkpt>
      <trkpt lat="42.44925" lon="0.1813">
        <ele>879.3</ele>
        <time>2014-07-04T10:45:02.000Z</time>
      </trkpt>
      <trkpt lat="42.44909" lon="0.18141">
        <ele>880.2</ele>
        <time>2014-07-04T10:45:13.000Z</time>
      </trkpt>
      <trkpt lat="42.44904" lon="0.18143">
        <ele>879.7</ele>
        <time>2014-07-04T10:45:17.000Z</time>
      </trkpt>
      <trkpt lat="42.44885" lon="0.18155">
        <ele>877.8</ele>
        <time>2014-07-04T10:45:32.000Z</time>
      </trkpt>
      <trkpt lat="42.44881" lon="0.18159">
        <ele>877.8</ele>
        <time>2014-07-04T10:45:35.000Z</time>
      </trkpt>
      <trkpt lat="42.44873" lon="0.18163">
        <ele>878.3</ele>
        <time>2014-07-04T10:45:40.000Z</time>
      </trkpt>
      <trkpt lat="42.4487" lon="0.18165">
        <ele>878.8</ele>
        <time>2014-07-04T10:45:43.000Z</time>
      </trkpt>
      <trkpt lat="42.44862" lon="0.18171">
        <ele>879.7</ele>
        <time>2014-07-04T10:45:51.000Z</time>
      </trkpt>
      <trkpt lat="42.44848" lon="0.18179">
        <ele>882.2</ele>
        <time>2014-07-04T10:46:00.000Z</time>
      </trkpt>
      <trkpt lat="42.44845" lon="0.18183">
        <ele>882.2</ele>
        <time>2014-07-04T10:46:03.000Z</time>
      </trkpt>
      <trkpt lat="42.44831" lon="0.18196">
        <ele>882.2</ele>
        <time>2014-07-04T10:46:15.000Z</time>
      </trkpt>
      <trkpt lat="42.44819" lon="0.18204">
        <ele>883.1</ele>
        <time>2014-07-04T10:46:25.000Z</time>
      </trkpt>
      <trkpt lat="42.44809" lon="0.18219">
        <ele>881.2</ele>
        <time>2014-07-04T10:46:35.000Z</time>
      </trkpt>
      <trkpt lat="42.44798" lon="0.18237">
        <ele>882.6</ele>
        <time>2014-07-04T10:46:47.000Z</time>
      </trkpt>
      <trkpt lat="42.44791" lon="0.18244">
        <ele>884.1</ele>
        <time>2014-07-04T10:46:52.000Z</time>
      </trkpt>
      <trkpt lat="42.44783" lon="0.18254">
        <ele>883.6</ele>
        <time>2014-07-04T10:46:58.000Z</time>
      </trkpt>
      <trkpt lat="42.44762" lon="0.18272">
        <ele>883.6</ele>
        <time>2014-07-04T10:47:13.000Z</time>
      </trkpt>
      <trkpt lat="42.44732" lon="0.18295">
        <ele>878.3</ele>
        <time>2014-07-04T10:47:25.000Z</time>
      </trkpt>
      <trkpt lat="42.44705" lon="0.18311">
        <ele>874.9</ele>
        <time>2014-07-04T10:47:34.000Z</time>
      </trkpt>
      <trkpt lat="42.44698" lon="0.18315">
        <ele>876.4</ele>
        <time>2014-07-04T10:47:37.000Z</time>
      </trkpt>
      <trkpt lat="42.44677" lon="0.18324">
        <ele>888</ele>
        <time>2014-07-04T10:49:22.000Z</time>
      </trkpt>
      <trkpt lat="42.44677" lon="0.18324">
        <ele>888</ele>
        <time>2014-07-04T10:49:22.000Z</time>
      </trkpt>
      <trkpt lat="42.44677" lon="0.18324">
        <ele>888</ele>
        <time>2014-07-04T10:49:22.000Z</time>
      </trkpt>
      <trkpt lat="42.44677" lon="0.18323">
        <ele>888</ele>
        <time>2015-02-18T10:37:17.000Z</time>
      </trkpt>
      <trkpt lat="42.44672" lon="0.18312">
        <ele>886</ele>
        <time>2015-02-18T10:56:57.000Z</time>
      </trkpt>
      <trkpt lat="42.44663" lon="0.18312">
        <ele>887</ele>
        <time>2015-02-18T10:58:14.000Z</time>
      </trkpt>
      <trkpt lat="42.44624" lon="0.18325">
        <ele>900.9</ele>
        <time>2015-02-18T10:58:21.000Z</time>
      </trkpt>
      <trkpt lat="42.44605" lon="0.18335">
        <ele>897</ele>
        <time>2015-02-18T10:58:24.000Z</time>
      </trkpt>
      <trkpt lat="42.44567" lon="0.18343">
        <ele>897.5</ele>
        <time>2015-02-18T10:58:32.000Z</time>
      </trkpt>
      <trkpt lat="42.44557" lon="0.18342">
        <ele>899</ele>
        <time>2015-02-18T10:58:34.000Z</time>
      </trkpt>
      <trkpt lat="42.44537" lon="0.18346">
        <ele>899.9</ele>
        <time>2015-02-18T10:58:38.000Z</time>
      </trkpt>
      <trkpt lat="42.44521" lon="0.18353">
        <ele>897</ele>
        <time>2015-02-18T10:58:41.000Z</time>
      </trkpt>
      <trkpt lat="42.44498" lon="0.18354">
        <ele>891.8</ele>
        <time>2015-02-18T10:58:45.000Z</time>
      </trkpt>
      <trkpt lat="42.4448" lon="0.18348">
        <ele>887.9</ele>
        <time>2015-02-18T10:58:48.000Z</time>
      </trkpt>
      <trkpt lat="42.4447" lon="0.18339">
        <ele>885.5</ele>
        <time>2015-02-18T10:58:50.000Z</time>
      </trkpt>
      <trkpt lat="42.44439" lon="0.18315">
        <ele>880.2</ele>
        <time>2015-02-18T10:58:56.000Z</time>
      </trkpt>
      <trkpt lat="42.44433" lon="0.18303">
        <ele>879.3</ele>
        <time>2015-02-18T10:58:58.000Z</time>
      </trkpt>
      <trkpt lat="42.44425" lon="0.18293">
        <ele>879.3</ele>
        <time>2015-02-18T10:59:00.000Z</time>
      </trkpt>
      <trkpt lat="42.44411" lon="0.18266">
        <ele>879.3</ele>
        <time>2015-02-18T10:59:05.000Z</time>
      </trkpt>
      <trkpt lat="42.44401" lon="0.18254">
        <ele>879.3</ele>
        <time>2015-02-18T10:59:08.000Z</time>
      </trkpt>
      <trkpt lat="42.44383" lon="0.18239">
        <ele>879.3</ele>
        <time>2015-02-18T10:59:12.000Z</time>
      </trkpt>
      <trkpt lat="42.44355" lon="0.18226">
        <ele>879.3</ele>
        <time>2015-02-18T10:59:16.000Z</time>
      </trkpt>
      <trkpt lat="42.44336" lon="0.18226">
        <ele>874.9</ele>
        <time>2015-02-18T10:59:20.000Z</time>
      </trkpt>
      <trkpt lat="42.44332" lon="0.18224">
        <ele>871.1</ele>
        <time>2015-02-18T10:59:23.000Z</time>
      </trkpt>
      <trkpt lat="42.44333" lon="0.18223">
        <ele>869.2</ele>
        <time>2015-02-18T10:59:30.000Z</time>
      </trkpt>
      <trkpt lat="42.44328" lon="0.18218">
        <ele>872.5</ele>
        <time>2015-02-18T10:59:34.000Z</time>
      </trkpt>
      <trkpt lat="42.4432" lon="0.18202">
        <ele>874.5</ele>
        <time>2015-02-18T10:59:40.000Z</time>
      </trkpt>
      <trkpt lat="42.44311" lon="0.18175">
        <ele>873</ele>
        <time>2015-02-18T10:59:48.000Z</time>
      </trkpt>
      <trkpt lat="42.44311" lon="0.18169">
        <ele>873</ele>
        <time>2015-02-18T10:59:50.000Z</time>
      </trkpt>
      <trkpt lat="42.44305" lon="0.18139">
        <ele>873</ele>
        <time>2015-02-18T10:59:59.000Z</time>
      </trkpt>
      <trkpt lat="42.44298" lon="0.18131">
        <ele>873</ele>
        <time>2015-02-18T11:00:03.000Z</time>
      </trkpt>
      <trkpt lat="42.44266" lon="0.18118">
        <ele>872.5</ele>
        <time>2015-02-18T11:00:11.000Z</time>
      </trkpt>
      <trkpt lat="42.44255" lon="0.18116">
        <ele>870.6</ele>
        <time>2015-02-18T11:00:13.000Z</time>
      </trkpt>
      <trkpt lat="42.44232" lon="0.18113">
        <ele>866.3</ele>
        <time>2015-02-18T11:00:17.000Z</time>
      </trkpt>
      <trkpt lat="42.4422" lon="0.181">
        <ele>861.5</ele>
        <time>2015-02-18T11:00:20.000Z</time>
      </trkpt>
      <trkpt lat="42.4422" lon="0.18086">
        <ele>858.1</ele>
        <time>2015-02-18T11:00:22.000Z</time>
      </trkpt>
      <trkpt lat="42.44222" lon="0.18068">
        <ele>854.8</ele>
        <time>2015-02-18T11:00:24.000Z</time>
      </trkpt>
      <trkpt lat="42.44228" lon="0.1804">
        <ele>849.9</ele>
        <time>2015-02-18T11:00:27.000Z</time>
      </trkpt>
      <trkpt lat="42.44229" lon="0.1802">
        <ele>846.6</ele>
        <time>2015-02-18T11:00:31.000Z</time>
      </trkpt>
      <trkpt lat="42.4423" lon="0.18015">
        <ele>846.1</ele>
        <time>2015-02-18T11:00:32.000Z</time>
      </trkpt>
      <trkpt lat="42.44239" lon="0.17986">
        <ele>843.7</ele>
        <time>2015-02-18T11:00:37.000Z</time>
      </trkpt>
      <trkpt lat="42.44244" lon="0.17956">
        <ele>839.4</ele>
        <time>2015-02-18T11:00:42.000Z</time>
      </trkpt>
      <trkpt lat="42.44246" lon="0.17936">
        <ele>835.5</ele>
        <time>2015-02-18T11:00:45.000Z</time>
      </trkpt>
      <trkpt lat="42.44253" lon="0.17917">
        <ele>831.2</ele>
        <time>2015-02-18T11:00:48.000Z</time>
      </trkpt>
      <trkpt lat="42.4426" lon="0.17901">
        <ele>827.3</ele>
        <time>2015-02-18T11:00:51.000Z</time>
      </trkpt>
      <trkpt lat="42.44267" lon="0.17884">
        <ele>824</ele>
        <time>2015-02-18T11:00:54.000Z</time>
      </trkpt>
      <trkpt lat="42.4427" lon="0.17871">
        <ele>821.1</ele>
        <time>2015-02-18T11:00:57.000Z</time>
      </trkpt>
      <trkpt lat="42.44273" lon="0.17856">
        <ele>817.7</ele>
        <time>2015-02-18T11:01:01.000Z</time>
      </trkpt>
      <trkpt lat="42.44271" lon="0.17843">
        <ele>814.8</ele>
        <time>2015-02-18T11:01:04.000Z</time>
      </trkpt>
      <trkpt lat="42.44285" lon="0.17825">
        <ele>810</ele>
        <time>2015-02-18T11:01:08.000Z</time>
      </trkpt>
      <trkpt lat="42.44286" lon="0.17806">
        <ele>806.2</ele>
        <time>2015-02-18T11:01:12.000Z</time>
      </trkpt>
      <trkpt lat="42.44291" lon="0.17787">
        <ele>801.4</ele>
        <time>2015-02-18T11:01:16.000Z</time>
      </trkpt>
      <trkpt lat="42.44295" lon="0.17773">
        <ele>798</ele>
        <time>2015-02-18T11:01:19.000Z</time>
      </trkpt>
      <trkpt lat="42.443" lon="0.1776">
        <ele>794.2</ele>
        <time>2015-02-18T11:01:22.000Z</time>
      </trkpt>
      <trkpt lat="42.44299" lon="0.17744">
        <ele>791.3</ele>
        <time>2015-02-18T11:01:25.000Z</time>
      </trkpt>
      <trkpt lat="42.44301" lon="0.17729">
        <ele>787.9</ele>
        <time>2015-02-18T11:01:28.000Z</time>
      </trkpt>
      <trkpt lat="42.44304" lon="0.17703">
        <ele>781.7</ele>
        <time>2015-02-18T11:01:33.000Z</time>
      </trkpt>
      <trkpt lat="42.44308" lon="0.17698">
        <ele>780.2</ele>
        <time>2015-02-18T11:01:34.000Z</time>
      </trkpt>
      <trkpt lat="42.4432" lon="0.17668">
        <ele>774.5</ele>
        <time>2015-02-18T11:01:39.000Z</time>
      </trkpt>
      <trkpt lat="42.44324" lon="0.17653">
        <ele>772.1</ele>
        <time>2015-02-18T11:01:41.000Z</time>
      </trkpt>
      <trkpt lat="42.44326" lon="0.17636">
        <ele>769.2</ele>
        <time>2015-02-18T11:01:43.000Z</time>
      </trkpt>
      <trkpt lat="42.44326" lon="0.17615">
        <ele>764.4</ele>
        <time>2015-02-18T11:01:46.000Z</time>
      </trkpt>
      <trkpt lat="42.44324" lon="0.17601">
        <ele>761</ele>
        <time>2015-02-18T11:01:48.000Z</time>
      </trkpt>
      <trkpt lat="42.44323" lon="0.17595">
        <ele>759.6</ele>
        <time>2015-02-18T11:01:49.000Z</time>
      </trkpt>
      <trkpt lat="42.44306" lon="0.17582">
        <ele>754.8</ele>
        <time>2015-02-18T11:01:54.000Z</time>
      </trkpt>
      <trkpt lat="42.44291" lon="0.17593">
        <ele>752.8</ele>
        <time>2015-02-18T11:01:58.000Z</time>
      </trkpt>
      <trkpt lat="42.44285" lon="0.17586">
        <ele>750</ele>
        <time>2015-02-18T11:02:02.000Z</time>
      </trkpt>
      <trkpt lat="42.44278" lon="0.17592">
        <ele>747.1</ele>
        <time>2015-02-18T11:02:05.000Z</time>
      </trkpt>
      <trkpt lat="42.44275" lon="0.1759">
        <ele>745.6</ele>
        <time>2015-02-18T11:02:07.000Z</time>
      </trkpt>
      <trkpt lat="42.44274" lon="0.17577">
        <ele>741.8</ele>
        <time>2015-02-18T11:02:11.000Z</time>
      </trkpt>
      <trkpt lat="42.44274" lon="0.17574">
        <ele>740.8</ele>
        <time>2015-02-18T11:02:12.000Z</time>
      </trkpt>
      <trkpt lat="42.44277" lon="0.17566">
        <ele>738.9</ele>
        <time>2015-02-18T11:02:14.000Z</time>
      </trkpt>
      <trkpt lat="42.44268" lon="0.17561">
        <ele>734.6</ele>
        <time>2015-02-18T11:02:18.000Z</time>
      </trkpt>
      <trkpt lat="42.44265" lon="0.17541">
        <ele>731.2</ele>
        <time>2015-02-18T11:02:23.000Z</time>
      </trkpt>
      <trkpt lat="42.4428" lon="0.17519">
        <ele>727.4</ele>
        <time>2015-02-18T11:02:28.000Z</time>
      </trkpt>
      <trkpt lat="42.44283" lon="0.17516">
        <ele>726.4</ele>
        <time>2015-02-18T11:02:29.000Z</time>
      </trkpt>
      <trkpt lat="42.44289" lon="0.1751">
        <ele>725</ele>
        <time>2015-02-18T11:02:31.000Z</time>
      </trkpt>
      <trkpt lat="42.4429" lon="0.17504">
        <ele>722.6</ele>
        <time>2015-02-18T11:02:35.000Z</time>
      </trkpt>
      <trkpt lat="42.44284" lon="0.17485">
        <ele>722.1</ele>
        <time>2015-02-18T11:02:41.000Z</time>
      </trkpt>
      <trkpt lat="42.44269" lon="0.17463">
        <ele>722.1</ele>
        <time>2015-02-18T11:02:45.000Z</time>
      </trkpt>
      <trkpt lat="42.44244" lon="0.17437">
        <ele>718.7</ele>
        <time>2015-02-18T11:02:51.000Z</time>
      </trkpt>
      <trkpt lat="42.44242" lon="0.1743">
        <ele>717.3</ele>
        <time>2015-02-18T11:02:52.000Z</time>
      </trkpt>
      <trkpt lat="42.44235" lon="0.17409">
        <ele>712.5</ele>
        <time>2015-02-18T11:02:55.000Z</time>
      </trkpt>
      <trkpt lat="42.44222" lon="0.17374">
        <ele>710.1</ele>
        <time>2015-02-18T11:03:00.000Z</time>
      </trkpt>
      <trkpt lat="42.44209" lon="0.17349">
        <ele>710.1</ele>
        <time>2015-02-18T11:03:04.000Z</time>
      </trkpt>
      <trkpt lat="42.44192" lon="0.17305">
        <ele>708.6</ele>
        <time>2015-02-18T11:03:11.000Z</time>
      </trkpt>
      <trkpt lat="42.44186" lon="0.17287">
        <ele>705.3</ele>
        <time>2015-02-18T11:03:14.000Z</time>
      </trkpt>
      <trkpt lat="42.4418" lon="0.17264">
        <ele>699.5</ele>
        <time>2015-02-18T11:03:17.000Z</time>
      </trkpt>
      <trkpt lat="42.44181" lon="0.17247">
        <ele>694.7</ele>
        <time>2015-02-18T11:03:19.000Z</time>
      </trkpt>
      <trkpt lat="42.44179" lon="0.17215">
        <ele>688.9</ele>
        <time>2015-02-18T11:03:24.000Z</time>
      </trkpt>
      <trkpt lat="42.44178" lon="0.17201">
        <ele>690.4</ele>
        <time>2015-02-18T11:03:26.000Z</time>
      </trkpt>
      <trkpt lat="42.44185" lon="0.17126">
        <ele>692.8</ele>
        <time>2015-02-18T11:03:35.000Z</time>
      </trkpt>
      <trkpt lat="42.44183" lon="0.17116">
        <ele>692.8</ele>
        <time>2015-02-18T11:03:36.000Z</time>
      </trkpt>
      <trkpt lat="42.44175" lon="0.17073">
        <ele>686.5</ele>
        <time>2015-02-18T11:03:40.000Z</time>
      </trkpt>
      <trkpt lat="42.44159" lon="0.17019">
        <ele>683.2</ele>
        <time>2015-02-18T11:03:47.000Z</time>
      </trkpt>
      <trkpt lat="42.44137" lon="0.16974">
        <ele>683.2</ele>
        <time>2015-02-18T11:03:53.000Z</time>
      </trkpt>
      <trkpt lat="42.44119" lon="0.16955">
        <ele>679.3</ele>
        <time>2015-02-18T11:03:58.000Z</time>
      </trkpt>
      <trkpt lat="42.44115" lon="0.16936">
        <ele>675</ele>
        <time>2015-02-18T11:04:01.000Z</time>
      </trkpt>
      <trkpt lat="42.44112" lon="0.16925">
        <ele>671.6</ele>
        <time>2015-02-18T11:04:03.000Z</time>
      </trkpt>
      <trkpt lat="42.44114" lon="0.16916">
        <ele>668.7</ele>
        <time>2015-02-18T11:04:05.000Z</time>
      </trkpt>
      <trkpt lat="42.44114" lon="0.16901">
        <ele>665.4</ele>
        <time>2015-02-18T11:04:07.000Z</time>
      </trkpt>
      <trkpt lat="42.44113" lon="0.16871">
        <ele>658.6</ele>
        <time>2015-02-18T11:04:12.000Z</time>
      </trkpt>
      <trkpt lat="42.44109" lon="0.16861">
        <ele>656.2</ele>
        <time>2015-02-18T11:04:22.000Z</time>
      </trkpt>
      <trkpt lat="42.44109" lon="0.16861">
        <ele>658.6</ele>
        <time>2015-02-18T11:04:48.000Z</time>
      </trkpt>
      <trkpt lat="42.44099" lon="0.16843">
        <ele>655.8</ele>
        <time>2015-02-18T11:04:56.000Z</time>
      </trkpt>
      <trkpt lat="42.44104" lon="0.16838">
        <ele>651</ele>
        <time>2015-02-18T11:04:59.000Z</time>
      </trkpt>
      <trkpt lat="42.44106" lon="0.16833">
        <ele>647.6</ele>
        <time>2015-02-18T11:05:01.000Z</time>
      </trkpt>
      <trkpt lat="42.44103" lon="0.1683">
        <ele>643.7</ele>
        <time>2015-02-18T11:05:04.000Z</time>
      </trkpt>
      <trkpt lat="42.44099" lon="0.1683">
        <ele>644.2</ele>
        <time>2015-02-18T11:05:07.000Z</time>
      </trkpt>
      <trkpt lat="42.44094" lon="0.16826">
        <ele>647.6</ele>
        <time>2015-02-18T11:05:12.000Z</time>
      </trkpt>
      <trkpt lat="42.4409" lon="0.16822">
        <ele>649</ele>
        <time>2015-02-18T11:05:24.000Z</time>
      </trkpt>
      <trkpt lat="42.4409" lon="0.16822">
        <ele>647.6</ele>
        <time>2015-02-18T11:05:47.000Z</time>
      </trkpt>
      <trkpt lat="42.4409" lon="0.16822">
        <ele>647.6</ele>
        <time>2015-02-18T11:06:13.000Z</time>
      </trkpt>
      <trkpt lat="42.4409" lon="0.16822">
        <ele>647.6</ele>
        <time>2015-02-18T11:06:45.000Z</time>
      </trkpt>
      <trkpt lat="42.4409" lon="0.16822">
        <ele>647.1</ele>
        <time>2015-02-18T11:07:12.000Z</time>
      </trkpt>
      <trkpt lat="42.4409" lon="0.16822">
        <ele>647.1</ele>
        <time>2015-02-18T11:07:49.000Z</time>
      </trkpt>
      <trkpt lat="42.4409" lon="0.16822">
        <ele>647.1</ele>
        <time>2015-02-18T11:08:15.000Z</time>
      </trkpt>
      <trkpt lat="42.44087" lon="0.1682">
        <ele>649.5</ele>
        <time>2010-11-02T12:07:35.000Z</time>
      </trkpt>
      <trkpt lat="42.44087" lon="0.1682">
        <ele>649.5</ele>
        <time>2010-11-02T12:07:35.000Z</time>
      </trkpt>
      <trkpt lat="42.44087" lon="0.1682">
        <ele>649.5</ele>
        <time>2010-11-02T12:07:35.000Z</time>
      </trkpt>
      <trkpt lat="42.44083" lon="0.16814">
        <ele>649.5</ele>
        <time>2010-11-02T12:07:39.000Z</time>
      </trkpt>
      <trkpt lat="42.44049" lon="0.16865">
        <ele>650.5</ele>
        <time>2010-11-02T12:07:39.000Z</time>
      </trkpt>
      <trkpt lat="42.44021" lon="0.16886">
        <ele>650.6</ele>
        <time>2010-11-02T12:07:39.000Z</time>
      </trkpt>
      <trkpt lat="42.44018" lon="0.16938">
        <ele>659.9</ele>
        <time>2010-11-02T12:07:39.000Z</time>
      </trkpt>
      <trkpt lat="42.43999" lon="0.16955">
        <ele>660</ele>
        <time>2010-11-02T12:07:39.000Z</time>
      </trkpt>
      <trkpt lat="42.43945" lon="0.17007">
        <ele>661.1</ele>
        <time>2010-11-02T12:07:39.000Z</time>
      </trkpt>
      <trkpt lat="42.43912" lon="0.17073">
        <ele>670</ele>
        <time>2010-11-02T12:07:39.000Z</time>
      </trkpt>
      <trkpt lat="42.43876" lon="0.17094">
        <ele>670</ele>
        <time>2010-11-02T12:07:39.000Z</time>
      </trkpt>
      <trkpt lat="42.43847" lon="0.17102">
        <ele>669.5</ele>
        <time>2010-11-02T12:07:39.000Z</time>
      </trkpt>
      <trkpt lat="42.43818" lon="0.17126">
        <ele>668.3</ele>
        <time>2010-11-02T12:07:39.000Z</time>
      </trkpt>
      <trkpt lat="42.43814" lon="0.17173">
        <ele>668.7</ele>
        <time>2010-11-02T12:07:39.000Z</time>
      </trkpt>
      <trkpt lat="42.43768" lon="0.17197">
        <ele>670</ele>
        <time>2010-11-02T12:07:39.000Z</time>
      </trkpt>
      <trkpt lat="42.43699" lon="0.17205">
        <ele>662.7</ele>
        <time>2010-11-02T12:07:39.000Z</time>
      </trkpt>
      <trkpt lat="42.43694" lon="0.1724">
        <ele>658.1</ele>
        <time>2010-11-02T12:07:39.000Z</time>
      </trkpt>
      <trkpt lat="42.43727" lon="0.17277">
        <ele>660.3</ele>
        <time>2010-11-02T12:07:39.000Z</time>
      </trkpt>
      <trkpt lat="42.43723" lon="0.17298">
        <ele>665.5</ele>
        <time>2010-11-02T12:07:39.000Z</time>
      </trkpt>
      <trkpt lat="42.43697" lon="0.17294">
        <ele>667.7</ele>
        <time>2010-11-02T12:07:39.000Z</time>
      </trkpt>
      <trkpt lat="42.43664" lon="0.17278">
        <ele>670.5</ele>
        <time>2010-11-02T12:07:39.000Z</time>
      </trkpt>
      <trkpt lat="42.43625" lon="0.17304">
        <ele>676.3</ele>
        <time>2010-11-02T12:07:39.000Z</time>
      </trkpt>
      <trkpt lat="42.43576" lon="0.17353">
        <ele>672.4</ele>
        <time>2010-11-02T12:07:39.000Z</time>
      </trkpt>
      <trkpt lat="42.43554" lon="0.17377">
        <ele>675.3</ele>
        <time>2010-11-02T12:07:39.000Z</time>
      </trkpt>
      <trkpt lat="42.43533" lon="0.17383">
        <ele>673.8</ele>
        <time>2010-11-02T12:07:39.000Z</time>
      </trkpt>
      <trkpt lat="42.43494" lon="0.17447">
        <ele>668.1</ele>
        <time>2010-11-02T12:07:39.000Z</time>
      </trkpt>
      <trkpt lat="42.43412" lon="0.17427">
        <ele>662.6</ele>
        <time>2010-11-02T12:07:39.000Z</time>
      </trkpt>
      <trkpt lat="42.43376" lon="0.17372">
        <ele>663.1</ele>
        <time>2010-11-02T12:07:39.000Z</time>
      </trkpt>
      <trkpt lat="42.43316" lon="0.17342">
        <ele>649.8</ele>
        <time>2010-11-02T12:07:39.000Z</time>
      </trkpt>
      <trkpt lat="42.43304" lon="0.17246">
        <ele>651</ele>
        <time>2010-11-02T12:07:39.000Z</time>
      </trkpt>
      <trkpt lat="42.43294" lon="0.17216">
        <ele>650.3</ele>
        <time>2010-11-02T12:07:39.000Z</time>
      </trkpt>
      <trkpt lat="42.43298" lon="0.17189">
        <ele>650.7</ele>
        <time>2010-11-02T12:07:39.000Z</time>
      </trkpt>
      <trkpt lat="42.43319" lon="0.17161">
        <ele>649.5</ele>
        <time>2010-11-02T12:07:39.000Z</time>
      </trkpt>
      <trkpt lat="42.43334" lon="0.17169">
        <ele>652.6</ele>
        <time>2010-11-02T12:07:39.000Z</time>
      </trkpt>
      <trkpt lat="42.43362" lon="0.17128">
        <ele>655.9</ele>
        <time>2010-11-02T12:07:39.000Z</time>
      </trkpt>
      <trkpt lat="42.43383" lon="0.17121">
        <ele>659.8</ele>
        <time>2010-11-02T12:07:39.000Z</time>
      </trkpt>
      <trkpt lat="42.43404" lon="0.17096">
        <ele>661.3</ele>
        <time>2010-11-02T12:07:39.000Z</time>
      </trkpt>
      <trkpt lat="42.43421" lon="0.17071">
        <ele>659.9</ele>
        <time>2010-11-02T12:07:39.000Z</time>
      </trkpt>
      <trkpt lat="42.43421" lon="0.17071">
        <ele>659.9</ele>
        <time>2010-11-02T12:07:39.000Z</time>
      </trkpt>
      <trkpt lat="42.43424" lon="0.17035">
        <ele>654</ele>
        <time>2010-11-02T12:07:39.000Z</time>
      </trkpt>
      <trkpt lat="42.43415" lon="0.17023">
        <ele>649.6</ele>
        <time>2010-11-02T12:07:39.000Z</time>
      </trkpt>
      <trkpt lat="42.43394" lon="0.16976">
        <ele>646.5</ele>
        <time>2010-11-02T12:07:39.000Z</time>
      </trkpt>
      <trkpt lat="42.43361" lon="0.1696">
        <ele>637</ele>
        <time>2010-11-02T12:07:39.000Z</time>
      </trkpt>
      <trkpt lat="42.43343" lon="0.16954">
        <ele>632.8</ele>
        <time>2010-11-02T12:07:39.000Z</time>
      </trkpt>
      <trkpt lat="42.43298" lon="0.16919">
        <ele>629.7</ele>
        <time>2010-11-02T12:07:39.000Z</time>
      </trkpt>
      <trkpt lat="42.43279" lon="0.16869">
        <ele>625.1</ele>
        <time>2010-11-02T12:07:39.000Z</time>
      </trkpt>
      <trkpt lat="42.43272" lon="0.1683">
        <ele>623.4</ele>
        <time>2010-11-02T12:07:39.000Z</time>
      </trkpt>
      <trkpt lat="42.43284" lon="0.16806">
        <ele>620.4</ele>
        <time>2010-11-02T12:07:39.000Z</time>
      </trkpt>
      <trkpt lat="42.43294" lon="0.16741">
        <ele>610.1</ele>
        <time>2010-11-02T12:07:39.000Z</time>
      </trkpt>
      <trkpt lat="42.43275" lon="0.16667">
        <ele>602.8</ele>
        <time>2010-11-02T12:07:39.000Z</time>
      </trkpt>
      <trkpt lat="42.43243" lon="0.16629">
        <ele>597.8</ele>
        <time>2010-11-02T12:07:39.000Z</time>
      </trkpt>
      <trkpt lat="42.43214" lon="0.16596">
        <ele>590</ele>
        <time>2010-11-02T12:07:39.000Z</time>
      </trkpt>
      <trkpt lat="42.43185" lon="0.16568">
        <ele>583.1</ele>
        <time>2010-11-02T12:07:39.000Z</time>
      </trkpt>
      <trkpt lat="42.43169" lon="0.16535">
        <ele>580</ele>
        <time>2010-11-02T12:07:39.000Z</time>
      </trkpt>
      <trkpt lat="42.43145" lon="0.16492">
        <ele>579.6</ele>
        <time>2010-11-02T12:07:39.000Z</time>
      </trkpt>
      <trkpt lat="42.43145" lon="0.16492">
        <ele>579.6</ele>
        <time>2010-11-02T12:07:39.000Z</time>
      </trkpt>
      <trkpt lat="42.43111" lon="0.16475">
        <ele>590.4</ele>
        <time>2010-11-02T12:07:39.000Z</time>
      </trkpt>
      <trkpt lat="42.43097" lon="0.16443">
        <ele>586.2</ele>
        <time>2010-11-02T12:07:39.000Z</time>
      </trkpt>
      <trkpt lat="42.43083" lon="0.16372">
        <ele>577.2</ele>
        <time>2010-11-02T12:07:39.000Z</time>
      </trkpt>
      <trkpt lat="42.43078" lon="0.16331">
        <ele>572.4</ele>
        <time>2010-11-02T12:07:39.000Z</time>
      </trkpt>
      <trkpt lat="42.4305" lon="0.16313">
        <ele>569.6</ele>
        <time>2010-11-02T12:07:39.000Z</time>
      </trkpt>
      <trkpt lat="42.42942" lon="0.16378">
        <ele>564.1</ele>
        <time>2010-11-02T12:07:39.000Z</time>
      </trkpt>
      <trkpt lat="42.42926" lon="0.16368">
        <ele>568</ele>
        <time>2010-11-02T12:07:39.000Z</time>
      </trkpt>
      <trkpt lat="42.42915" lon="0.16325">
        <ele>567.3</ele>
        <time>2010-11-02T12:07:39.000Z</time>
      </trkpt>
      <trkpt lat="42.42879" lon="0.16299">
        <ele>567.9</ele>
        <time>2010-11-02T12:07:39.000Z</time>
      </trkpt>
      <trkpt lat="42.42807" lon="0.16254">
        <ele>564</ele>
        <time>2010-11-02T12:07:39.000Z</time>
      </trkpt>
      <trkpt lat="42.42777" lon="0.16204">
        <ele>561</ele>
        <time>2010-11-02T12:07:39.000Z</time>
      </trkpt>
      <trkpt lat="42.42748" lon="0.1617">
        <ele>560.1</ele>
        <time>2010-11-02T12:07:39.000Z</time>
      </trkpt>
      <trkpt lat="42.42727" lon="0.16135">
        <ele>558</ele>
        <time>2010-11-02T12:07:39.000Z</time>
      </trkpt>
      <trkpt lat="42.42703" lon="0.16076">
        <ele>559</ele>
        <time>2010-11-02T12:07:39.000Z</time>
      </trkpt>
      <trkpt lat="42.42668" lon="0.16058">
        <ele>558</ele>
        <time>2010-11-02T12:07:39.000Z</time>
      </trkpt>
      <trkpt lat="42.42617" lon="0.16042">
        <ele>560</ele>
        <time>2010-11-02T12:07:39.000Z</time>
      </trkpt>
      <trkpt lat="42.42589" lon="0.16026">
        <ele>559.2</ele>
        <time>2010-11-02T12:07:39.000Z</time>
      </trkpt>
      <trkpt lat="42.4254" lon="0.16032">
        <ele>559.9</ele>
        <time>2010-11-02T12:07:39.000Z</time>
      </trkpt>
      <trkpt lat="42.42472" lon="0.15932">
        <ele>554.1</ele>
        <time>2010-11-02T12:07:39.000Z</time>
      </trkpt>
      <trkpt lat="42.42456" lon="0.15847">
        <ele>553.6</ele>
        <time>2010-11-02T12:07:39.000Z</time>
      </trkpt>
      <trkpt lat="42.42487" lon="0.15757">
        <ele>551.2</ele>
        <time>2010-11-02T12:07:39.000Z</time>
      </trkpt>
      <trkpt lat="42.42483" lon="0.15693">
        <ele>551.8</ele>
        <time>2010-11-02T12:07:39.000Z</time>
      </trkpt>
      <trkpt lat="42.42463" lon="0.15654">
        <ele>549.4</ele>
        <time>2010-11-02T12:07:39.000Z</time>
      </trkpt>
      <trkpt lat="42.42335" lon="0.1556">
        <ele>547.7</ele>
        <time>2010-11-02T12:07:39.000Z</time>
      </trkpt>
      <trkpt lat="42.42088" lon="0.15262">
        <ele>539</ele>
        <time>2010-11-02T12:07:39.000Z</time>
      </trkpt>
      <trkpt lat="42.42017" lon="0.15149">
        <ele>537.6</ele>
        <time>2010-11-02T12:07:39.000Z</time>
      </trkpt>
      <trkpt lat="42.42016" lon="0.15027">
        <ele>537.6</ele>
        <time>2010-11-02T12:07:39.000Z</time>
      </trkpt>
      <trkpt lat="42.41975" lon="0.14892">
        <ele>535.9</ele>
        <time>2010-11-02T12:07:39.000Z</time>
      </trkpt>
      <trkpt lat="42.41854" lon="0.1482">
        <ele>531</ele>
        <time>2010-11-02T12:07:39.000Z</time>
      </trkpt>
      <trkpt lat="42.41732" lon="0.1479">
        <ele>531.2</ele>
        <time>2010-11-02T12:07:39.000Z</time>
      </trkpt>
      <trkpt lat="42.41647" lon="0.14681">
        <ele>534</ele>
        <time>2010-11-02T12:07:39.000Z</time>
      </trkpt>
      <trkpt lat="42.4158" lon="0.14547">
        <ele>527.9</ele>
        <time>2010-11-02T12:07:39.000Z</time>
      </trkpt>
      <trkpt lat="42.41553" lon="0.14452">
        <ele>530.7</ele>
        <time>2010-11-02T12:07:39.000Z</time>
      </trkpt>
      <trkpt lat="42.41524" lon="0.14451">
        <ele>528.1</ele>
        <time>2010-11-02T12:07:39.000Z</time>
      </trkpt>
      <trkpt lat="42.41468" lon="0.14063">
        <ele>537.9</ele>
        <time>2010-11-02T12:07:39.000Z</time>
        <extensions>
          <visugpx:TrkExtension xmlns:visugpx="https://www.visugpx.com/editgpx/">
            <visugpx:node>1</visugpx:node>
            </visugpx:TrkExtension>
        </extensions>
      </trkpt>
    </trkseg>
  </trk>
</gpx>